Wetterdaten: Samstag, 19.11.2022
Datum Zeit Temp. Aussen Temp. o. S. Temp +5cm Feuchte Auss Luftdruck Regen Sonnenschein Regendauer Solar Windben Empfang
19.11.2022 00:00 6,9 C 6,1 C 3,9 C 98 % 1007,0 hPa 0,0 l/m 0 min 0 min 0 W/m 6,4 km/h (2 Bft) 94,29 %
19.11.2022 00:02 6,8 C 6,1 C 3,9 C 98 % 1007,0 hPa 0,0 l/m 0 min 0 min 0 W/m 12,9 km/h (3 Bft) 92,68 %
19.11.2022 00:04 6,8 C 6,1 C 3,9 C 98 % 1007,0 hPa 0,0 l/m 0 min 0 min 0 W/m 6,4 km/h (2 Bft) 95,74 %
19.11.2022 00:08 6,7 C 6,1 C 3,3 C 97 % 1007,1 hPa 0,0 l/m 0 min 0 min 0 W/m 9,7 km/h (2 Bft) 94,79 %
19.11.2022 00:10 6,7 C 6,1 C 3,3 C 97 % 1007,1 hPa 0,0 l/m 0 min 0 min 0 W/m 9,7 km/h (2 Bft) 97,87 %
19.11.2022 00:12 6,7 C 6,1 C 3,3 C 97 % 1007,1 hPa 0,0 l/m 0 min 0 min 0 W/m 12,9 km/h (3 Bft) 97,87 %
19.11.2022 00:14 6,6 C 5,6 C 3,3 C 98 % 1007,1 hPa 0,0 l/m 0 min 0 min 0 W/m 12,9 km/h (3 Bft) 97,87 %
19.11.2022 00:16 6,6 C 5,6 C 3,3 C 98 % 1007,1 hPa 0,0 l/m 0 min 0 min 0 W/m 9,7 km/h (2 Bft) 97,83 %
19.11.2022 00:18 6,5 C 5,6 C 3,3 C 98 % 1007,1 hPa 0,0 l/m 0 min 0 min 0 W/m 12,9 km/h (3 Bft) 93,62 %
19.11.2022 00:20 6,5 C 5,6 C 3,3 C 98 % 1007,1 hPa 0,0 l/m 0 min 0 min 0 W/m 9,7 km/h (2 Bft) 97,87 %
19.11.2022 00:22 6,4 C 5,6 C 3,3 C 97 % 1007,1 hPa 0,0 l/m 0 min 0 min 0 W/m 6,4 km/h (2 Bft) 93,62 %
19.11.2022 00:24 6,4 C 5,6 C 3,3 C 97 % 1007,2 hPa 0,0 l/m 0 min 0 min 0 W/m 19,3 km/h (3 Bft) 95,74 %
19.11.2022 00:26 6,3 C 5,6 C 3,3 C 98 % 1007,2 hPa 0,0 l/m 0 min 0 min 0 W/m 12,9 km/h (3 Bft) 95,74 %
19.11.2022 00:28 6,3 C 5,6 C 3,3 C 98 % 1007,2 hPa 0,0 l/m 0 min 0 min 0 W/m 6,4 km/h (2 Bft) 95,65 %
19.11.2022 00:30 6,3 C 5,6 C 3,3 C 98 % 1007,2 hPa 0,2 l/m 0 min 0 min 0 W/m 6,4 km/h (2 Bft) 97,87 %
19.11.2022 00:32 6,2 C 5,6 C 3,3 C 98 % 1007,2 hPa 0,0 l/m 0 min 0 min 0 W/m 12,9 km/h (3 Bft) 95,74 %
19.11.2022 00:34 6,2 C 5,6 C 3,3 C 98 % 1007,2 hPa 0,0 l/m 0 min 0 min 0 W/m 6,4 km/h (2 Bft) 95,74 %
19.11.2022 00:36 6,2 C 5,6 C 3,3 C 98 % 1007,2 hPa 0,0 l/m 0 min 0 min 0 W/m 9,7 km/h (2 Bft) 95,74 %
19.11.2022 00:38 6,2 C 5,6 C 3,3 C 98 % 1007,2 hPa 0,0 l/m 0 min 0 min 0 W/m 3,2 km/h (1 Bft) 95,74 %
19.11.2022 00:40 6,1 C 5,6 C 3,3 C 98 % 1007,2 hPa 0,0 l/m 0 min 0 min 0 W/m 6,4 km/h (2 Bft) 95,65 %
19.11.2022 00:42 6,1 C 5,6 C 3,3 C 98 % 1007,2 hPa 0,0 l/m 0 min 0 min 0 W/m 3,2 km/h (1 Bft) 95,74 %
19.11.2022 00:44 6,1 C 5,6 C 3,3 C 98 % 1007,2 hPa 0,0 l/m 0 min 0 min 0 W/m 6,4 km/h (2 Bft) 95,74 %
19.11.2022 00:46 6,1 C 5,6 C 3,3 C 98 % 1007,2 hPa 0,0 l/m 0 min 0 min 0 W/m 6,4 km/h (2 Bft) 93,62 %
19.11.2022 00:48 6,1 C 5,6 C 3,3 C 98 % 1007,3 hPa 0,0 l/m 0 min 2 min 0 W/m 6,4 km/h (2 Bft) 97,87 %
19.11.2022 00:50 6,0 C 5,6 C 3,3 C 98 % 1007,2 hPa 0,0 l/m 0 min 2 min 0 W/m 6,4 km/h (2 Bft) 97,87 %
19.11.2022 00:52 6,0 C 5,6 C 2,8 C 98 % 1007,3 hPa 0,0 l/m 0 min 0 min 0 W/m 6,4 km/h (2 Bft) 95,65 %
19.11.2022 00:54 6,0 C 5,0 C 3,3 C 98 % 1007,3 hPa 0,0 l/m 0 min 2 min 0 W/m 3,2 km/h (1 Bft) 97,87 %
19.11.2022 00:56 5,9 C 5,6 C 3,3 C 98 % 1007,3 hPa 0,0 l/m 0 min 2 min 0 W/m 3,2 km/h (1 Bft) 95,74 %
19.11.2022 00:58 5,9 C 5,6 C 3,3 C 98 % 1007,3 hPa 0,0 l/m 0 min 0 min 0 W/m 0,0 km/h (0 Bft) 97,87 %
19.11.2022 01:00 5,9 C 5,0 C 2,8 C 98 % 1007,3 hPa 0,0 l/m 0 min 0 min 0 W/m 6,4 km/h (2 Bft) 97,87 %
19.11.2022 01:02 5,9 C 5,0 C 2,8 C 98 % 1007,3 hPa 0,0 l/m 0 min 0 min 0 W/m 12,9 km/h (3 Bft) 94,29 %
19.11.2022 01:04 5,8 C 5,0 C 2,8 C 98 % 1007,3 hPa 0,0 l/m 0 min 0 min 0 W/m 9,7 km/h (2 Bft) 95,74 %
19.11.2022 01:06 5,8 C 5,0 C 2,8 C 98 % 1007,3 hPa 0,0 l/m 0 min 0 min 0 W/m 12,9 km/h (3 Bft) 98,28 %
19.11.2022 01:08 5,8 C 5,0 C 2,8 C 98 % 1007,3 hPa 0,0 l/m 0 min 0 min 0 W/m 6,4 km/h (2 Bft) 97,14 %
19.11.2022 01:10 5,8 C 5,0 C 2,8 C 98 % 1007,3 hPa 0,0 l/m 0 min 0 min 0 W/m 6,4 km/h (2 Bft) 95,74 %
19.11.2022 01:12 5,7 C 5,0 C 2,8 C 98 % 1007,4 hPa 0,0 l/m 0 min 0 min 0 W/m 9,7 km/h (2 Bft) 98,11 %
19.11.2022 01:14 5,7 C 5,0 C 2,8 C 98 % 1007,4 hPa 0,0 l/m 0 min 0 min 0 W/m 12,9 km/h (3 Bft) 97,87 %
19.11.2022 01:16 5,7 C 5,0 C 2,8 C 98 % 1007,4 hPa 0,0 l/m 0 min 0 min 0 W/m 12,9 km/h (3 Bft) 97,87 %
19.11.2022 01:18 5,6 C 5,0 C 2,8 C 98 % 1007,4 hPa 0,0 l/m 0 min 0 min 0 W/m 9,7 km/h (2 Bft) 100,00 %
19.11.2022 01:20 5,6 C 4,4 C 2,8 C 98 % 1007,4 hPa 0,0 l/m 0 min 0 min 0 W/m 16,1 km/h (3 Bft) 100,00 %
19.11.2022 01:22 5,5 C 4,4 C 2,8 C 98 % 1007,4 hPa 0,0 l/m 0 min 0 min 0 W/m 12,9 km/h (3 Bft) 97,87 %
19.11.2022 01:24 5,5 C 4,4 C 2,8 C 98 % 1007,4 hPa 0,0 l/m 0 min 0 min 0 W/m 6,4 km/h (2 Bft) 100,00 %
19.11.2022 01:26 5,4 C 4,4 C 2,8 C 98 % 1007,4 hPa 0,0 l/m 0 min 2 min 0 W/m 6,4 km/h (2 Bft) 97,87 %
19.11.2022 01:28 5,4 C 4,4 C 2,8 C 98 % 1007,3 hPa 0,0 l/m 0 min 0 min 0 W/m 6,4 km/h (2 Bft) 100,00 %
19.11.2022 01:30 5,4 C 4,4 C 2,8 C 98 % 1007,4 hPa 0,0 l/m 0 min 0 min 0 W/m 9,7 km/h (2 Bft) 95,74 %
19.11.2022 01:32 5,4 C 5,0 C 2,8 C 98 % 1007,3 hPa 0,0 l/m 0 min 0 min 0 W/m 9,7 km/h (2 Bft) 97,83 %
19.11.2022 01:34 5,4 C 5,0 C 2,8 C 98 % 1007,3 hPa 0,0 l/m 0 min 0 min 0 W/m 6,4 km/h (2 Bft) 95,74 %
19.11.2022 01:36 5,4 C 4,4 C 2,8 C 98 % 1007,3 hPa 0,0 l/m 0 min 0 min 0 W/m 16,1 km/h (3 Bft) 97,87 %
19.11.2022 01:38 5,4 C 4,4 C 2,8 C 98 % 1007,4 hPa 0,0 l/m 0 min 0 min 0 W/m 12,9 km/h (3 Bft) 95,74 %
19.11.2022 01:40 5,4 C 4,4 C 2,8 C 98 % 1007,4 hPa 0,0 l/m 0 min 0 min 0 W/m 9,7 km/h (2 Bft) 97,87 %
19.11.2022 01:42 5,3 C 4,4 C 2,8 C 98 % 1007,3 hPa 0,0 l/m 0 min 2 min 0 W/m 6,4 km/h (2 Bft) 97,87 %
19.11.2022 01:44 5,3 C 4,4 C 2,8 C 98 % 1007,4 hPa 0,2 l/m 0 min 2 min 0 W/m 6,4 km/h (2 Bft) 97,83 %
19.11.2022 01:46 5,3 C 4,4 C 2,2 C 98 % 1007,4 hPa 0,0 l/m 0 min 0 min 0 W/m 6,4 km/h (2 Bft) 95,74 %
19.11.2022 01:48 5,3 C 4,4 C 2,8 C 98 % 1007,4 hPa 0,0 l/m 0 min 0 min 0 W/m 9,7 km/h (2 Bft) 97,87 %
19.11.2022 01:50 5,3 C 4,4 C 2,2 C 98 % 1007,4 hPa 0,0 l/m 0 min 0 min 0 W/m 6,4 km/h (2 Bft) 97,87 %
19.11.2022 01:52 5,3 C 4,4 C 2,8 C 98 % 1007,5 hPa 0,0 l/m 0 min 0 min 0 W/m 6,4 km/h (2 Bft) 97,87 %
19.11.2022 01:54 5,2 C 4,4 C 2,2 C 98 % 1007,4 hPa 0,0 l/m 0 min 2 min 0 W/m 16,1 km/h (3 Bft) 97,87 %
19.11.2022 01:56 5,2 C 4,4 C 2,2 C 98 % 1007,4 hPa 0,0 l/m 0 min 2 min 0 W/m 16,1 km/h (3 Bft) 95,65 %
19.11.2022 01:58 5,2 C 4,4 C 2,2 C 98 % 1007,5 hPa 0,0 l/m 0 min 2 min 0 W/m 9,7 km/h (2 Bft) 98,00 %
19.11.2022 02:00 5,2 C 4,4 C 2,2 C 98 % 1007,5 hPa 0,0 l/m 0 min 0 min 0 W/m 9,7 km/h (2 Bft) 100,00 %
19.11.2022 02:02 5,1 C 4,4 C 2,2 C 98 % 1007,5 hPa 0,0 l/m 0 min 0 min 0 W/m 9,7 km/h (2 Bft) 93,62 %
19.11.2022 02:04 5,1 C 4,4 C 2,2 C 98 % 1007,6 hPa 0,0 l/m 0 min 0 min 0 W/m 6,4 km/h (2 Bft) 97,87 %
19.11.2022 02:06 5,1 C 4,4 C 2,2 C 98 % 1007,7 hPa 0,0 l/m 0 min 0 min 0 W/m 16,1 km/h (3 Bft) 100,00 %
19.11.2022 02:08 5,1 C 4,4 C 2,2 C 98 % 1007,7 hPa 0,0 l/m 0 min 0 min 0 W/m 9,7 km/h (2 Bft) 100,00 %
19.11.2022 02:10 5,1 C 4,4 C 2,2 C 98 % 1007,7 hPa 0,0 l/m 0 min 0 min 0 W/m 12,9 km/h (3 Bft) 100,00 %
19.11.2022 02:14 5,1 C 4,4 C 2,2 C 98 % 1007,7 hPa 0,0 l/m 0 min 0 min 0 W/m 6,4 km/h (2 Bft) 100,00 %
19.11.2022 02:16 5,1 C 4,4 C 2,2 C 98 % 1007,7 hPa 0,0 l/m 0 min 0 min 0 W/m 9,7 km/h (2 Bft) 95,12 %
19.11.2022 02:18 5,1 C 4,4 C 2,2 C 98 % 1007,7 hPa 0,0 l/m 0 min 0 min 0 W/m 12,9 km/h (3 Bft) 100,00 %
19.11.2022 02:20 5,0 C 4,4 C 2,2 C 98 % 1007,7 hPa 0,0 l/m 0 min 0 min 0 W/m 19,3 km/h (3 Bft) 100,00 %
19.11.2022 02:22 4,9 C 4,4 C 2,2 C 98 % 1007,7 hPa 0,0 l/m 0 min 0 min 0 W/m 12,9 km/h (3 Bft) 100,00 %
19.11.2022 02:24 4,9 C 4,4 C 2,2 C 98 % 1007,7 hPa 0,0 l/m 0 min 0 min 0 W/m 12,9 km/h (3 Bft) 100,00 %
19.11.2022 02:26 4,9 C 4,4 C 2,2 C 98 % 1007,7 hPa 0,0 l/m 0 min 0 min 0 W/m 12,9 km/h (3 Bft) 95,74 %
19.11.2022 02:28 4,9 C 3,9 C 2,2 C 98 % 1007,7 hPa 0,0 l/m 0 min 0 min 0 W/m 9,7 km/h (2 Bft) 100,00 %
19.11.2022 02:30 4,8 C 3,9 C 2,2 C 98 % 1007,7 hPa 0,0 l/m 0 min 0 min 0 W/m 22,5 km/h (4 Bft) 100,00 %
19.11.2022 02:32 4,8 C 3,9 C 2,2 C 98 % 1007,7 hPa 0,0 l/m 0 min 0 min 0 W/m 9,7 km/h (2 Bft) 100,00 %
19.11.2022 02:34 4,7 C 3,9 C 1,7 C 98 % 1007,8 hPa 0,0 l/m 0 min 0 min 0 W/m 6,4 km/h (2 Bft) 100,00 %
19.11.2022 02:36 4,6 C 3,9 C 2,2 C 98 % 1007,8 hPa 0,0 l/m 0 min 0 min 0 W/m 6,4 km/h (2 Bft) 100,00 %
19.11.2022 02:38 4,6 C 3,9 C 1,7 C 98 % 1007,8 hPa 0,0 l/m 0 min 0 min 0 W/m 12,9 km/h (3 Bft) 97,87 %
19.11.2022 02:40 4,6 C 3,9 C 1,7 C 98 % 1007,8 hPa 0,0 l/m 0 min 0 min 0 W/m 12,9 km/h (3 Bft) 97,87 %
19.11.2022 02:42 4,6 C 3,9 C 1,7 C 98 % 1007,9 hPa 0,0 l/m 0 min 0 min 0 W/m 16,1 km/h (3 Bft) 97,87 %
19.11.2022 02:44 4,5 C 3,9 C 1,7 C 98 % 1007,8 hPa 0,0 l/m 0 min 0 min 0 W/m 9,7 km/h (2 Bft) 100,00 %
19.11.2022 02:46 4,5 C 3,9 C 1,7 C 98 % 1007,9 hPa 0,0 l/m 0 min 0 min 0 W/m 12,9 km/h (3 Bft) 100,00 %
19.11.2022 02:48 4,4 C 3,9 C 1,7 C 98 % 1007,9 hPa 0,0 l/m 0 min 0 min 0 W/m 16,1 km/h (3 Bft) 97,83 %
19.11.2022 02:50 4,4 C 3,9 C 1,7 C 98 % 1007,9 hPa 0,0 l/m 0 min 0 min 0 W/m 19,3 km/h (3 Bft) 100,00 %
19.11.2022 02:52 4,3 C 3,9 C 1,7 C 98 % 1007,9 hPa 0,0 l/m 0 min 0 min 0 W/m 12,9 km/h (3 Bft) 97,87 %
19.11.2022 02:54 4,3 C 3,9 C 1,7 C 98 % 1008,0 hPa 0,0 l/m 0 min 0 min 0 W/m 25,7 km/h (4 Bft) 97,87 %
19.11.2022 02:56 4,3 C 3,9 C 1,7 C 98 % 1008,0 hPa 0,0 l/m 0 min 0 min 0 W/m 22,5 km/h (4 Bft) 97,87 %
19.11.2022 02:58 4,3 C 3,3 C 1,7 C 98 % 1008,0 hPa 0,0 l/m 0 min 0 min 0 W/m 22,5 km/h (4 Bft) 97,87 %
19.11.2022 03:00 4,2 C 3,3 C 1,7 C 98 % 1008,0 hPa 0,0 l/m 0 min 0 min 0 W/m 12,9 km/h (3 Bft) 54,35 %
19.11.2022 03:02 4,2 C 3,3 C 1,7 C 98 % 1007,9 hPa 0,0 l/m 0 min 0 min 0 W/m 6,4 km/h (2 Bft) 91,49 %
19.11.2022 03:04 4,2 C 3,3 C 1,7 C 98 % 1007,9 hPa 0,0 l/m 0 min 0 min 0 W/m 19,3 km/h (3 Bft) 95,74 %
19.11.2022 03:06 4,2 C 3,3 C 1,7 C 98 % 1008,0 hPa 0,0 l/m 0 min 0 min 0 W/m 22,5 km/h (4 Bft) 93,62 %
19.11.2022 03:08 4,1 C 3,3 C 1,7 C 98 % 1008,0 hPa 0,0 l/m 0 min 0 min 0 W/m 16,1 km/h (3 Bft) 93,62 %
19.11.2022 03:10 4,1 C 3,3 C 1,1 C 98 % 1008,0 hPa 0,0 l/m 0 min 0 min 0 W/m 25,7 km/h (4 Bft) 95,74 %
19.11.2022 03:12 4,1 C 3,3 C 1,1 C 98 % 1008,1 hPa 0,0 l/m 0 min 0 min 0 W/m 12,9 km/h (3 Bft) 93,48 %
19.11.2022 03:14 4,1 C 3,3 C 1,1 C 98 % 1008,0 hPa 0,0 l/m 0 min 0 min 0 W/m 12,9 km/h (3 Bft) 95,74 %
19.11.2022 03:16 4,0 C 3,3 C 1,1 C 98 % 1008,1 hPa 0,0 l/m 0 min 0 min 0 W/m 6,4 km/h (2 Bft) 93,62 %
19.11.2022 03:18 4,1 C 3,3 C 1,7 C 98 % 1008,1 hPa 0,0 l/m 0 min 0 min 0 W/m 9,7 km/h (2 Bft) 93,62 %
19.11.2022 03:20 4,0 C 3,3 C 1,7 C 98 % 1008,2 hPa 0,0 l/m 0 min 0 min 0 W/m 6,4 km/h (2 Bft) 93,62 %
19.11.2022 03:22 4,1 C 3,3 C 1,7 C 98 % 1008,2 hPa 0,0 l/m 0 min 0 min 0 W/m 19,3 km/h (3 Bft) 91,49 %
19.11.2022 03:24 4,1 C 3,3 C 1,7 C 98 % 1008,2 hPa 0,0 l/m 0 min 0 min 0 W/m 12,9 km/h (3 Bft) 93,48 %
19.11.2022 03:26 4,0 C 3,3 C 1,7 C 98 % 1008,2 hPa 0,0 l/m 0 min 0 min 0 W/m 12,9 km/h (3 Bft) 91,49 %
19.11.2022 03:28 4,0 C 3,3 C 1,7 C 98 % 1008,2 hPa 0,0 l/m 0 min 0 min 0 W/m 16,1 km/h (3 Bft) 93,62 %
19.11.2022 03:30 4,0 C 3,3 C 1,7 C 98 % 1008,3 hPa 0,0 l/m 0 min 0 min 0 W/m 12,9 km/h (3 Bft) 93,62 %
19.11.2022 03:32 4,0 C 3,3 C 1,7 C 98 % 1008,3 hPa 0,0 l/m 0 min 0 min 0 W/m 6,4 km/h (2 Bft) 95,74 %
19.11.2022 03:34 4,1 C 3,3 C 1,7 C 98 % 1008,4 hPa 0,0 l/m 0 min 0 min 0 W/m 6,4 km/h (2 Bft) 93,62 %
19.11.2022 03:36 4,1 C 3,3 C 1,7 C 98 % 1008,4 hPa 0,0 l/m 0 min 0 min 0 W/m 6,4 km/h (2 Bft) 91,30 %
19.11.2022 03:38 4,1 C 3,3 C 1,7 C 98 % 1008,4 hPa 0,0 l/m 0 min 0 min 0 W/m 12,9 km/h (3 Bft) 93,62 %
19.11.2022 03:40 4,0 C 3,3 C 1,7 C 98 % 1008,4 hPa 0,0 l/m 0 min 0 min 0 W/m 12,9 km/h (3 Bft) 95,74 %
19.11.2022 03:42 3,9 C 3,3 C 1,1 C 98 % 1008,4 hPa 0,0 l/m 0 min 0 min 0 W/m 12,9 km/h (3 Bft) 91,49 %
19.11.2022 03:44 3,9 C 3,3 C 1,1 C 98 % 1008,4 hPa 0,0 l/m 0 min 0 min 0 W/m 19,3 km/h (3 Bft) 95,74 %
19.11.2022 03:46 3,8 C 3,3 C 1,1 C 98 % 1008,4 hPa 0,0 l/m 0 min 0 min 0 W/m 6,4 km/h (2 Bft) 95,74 %
19.11.2022 03:48 3,8 C 3,3 C 1,1 C 98 % 1008,4 hPa 0,0 l/m 0 min 0 min 0 W/m 3,2 km/h (1 Bft) 95,65 %
19.11.2022 03:50 3,8 C 3,3 C 1,1 C 98 % 1008,4 hPa 0,0 l/m 0 min 0 min 0 W/m 16,1 km/h (3 Bft) 97,87 %
19.11.2022 03:52 3,8 C 3,3 C 1,1 C 98 % 1008,4 hPa 0,0 l/m 0 min 0 min 0 W/m 16,1 km/h (3 Bft) 97,87 %
19.11.2022 03:54 3,8 C 3,3 C 1,1 C 98 % 1008,4 hPa 0,0 l/m 0 min 0 min 0 W/m 9,7 km/h (2 Bft) 93,62 %
19.11.2022 03:56 3,7 C 3,3 C 1,1 C 98 % 1008,4 hPa 0,0 l/m 0 min 0 min 0 W/m 19,3 km/h (3 Bft) 100,00 %
19.11.2022 03:58 3,7 C 3,3 C 1,1 C 98 % 1008,4 hPa 0,0 l/m 0 min 0 min 0 W/m 22,5 km/h (4 Bft) 95,74 %
19.11.2022 04:00 3,7 C 2,8 C 1,1 C 98 % 1008,4 hPa 0,0 l/m 0 min 0 min 0 W/m 16,1 km/h (3 Bft) 97,83 %
19.11.2022 04:02 3,6 C 2,8 C 1,1 C 98 % 1008,4 hPa 0,0 l/m 0 min 0 min 0 W/m 19,3 km/h (3 Bft) 97,92 %
19.11.2022 04:04 3,6 C 2,8 C 1,1 C 98 % 1008,4 hPa 0,0 l/m 0 min 0 min 0 W/m 12,9 km/h (3 Bft) 100,00 %
19.11.2022 04:06 3,6 C 2,8 C 1,1 C 98 % 1008,5 hPa 0,0 l/m 0 min 0 min 0 W/m 9,7 km/h (2 Bft) 97,87 %
19.11.2022 04:08 3,6 C 3,3 C 1,1 C 98 % 1008,5 hPa 0,0 l/m 0 min 0 min 0 W/m 16,1 km/h (3 Bft) 100,00 %
19.11.2022 04:10 3,6 C 2,8 C 1,1 C 98 % 1008,5 hPa 0,0 l/m 0 min 0 min 0 W/m 19,3 km/h (3 Bft) 97,87 %
19.11.2022 04:12 3,6 C 2,8 C 1,1 C 98 % 1008,6 hPa 0,0 l/m 0 min 0 min 0 W/m 16,1 km/h (3 Bft) 95,74 %
19.11.2022 04:14 3,5 C 2,8 C 1,1 C 98 % 1008,6 hPa 0,0 l/m 0 min 0 min 0 W/m 6,4 km/h (2 Bft) 97,83 %
19.11.2022 04:16 3,5 C 2,8 C 1,1 C 98 % 1008,6 hPa 0,0 l/m 0 min 0 min 0 W/m 16,1 km/h (3 Bft) 100,00 %
19.11.2022 04:18 3,5 C 2,8 C 1,1 C 98 % 1008,5 hPa 0,0 l/m 0 min 0 min 0 W/m 16,1 km/h (3 Bft) 97,87 %
19.11.2022 04:20 3,5 C 2,8 C 1,1 C 98 % 1008,6 hPa 0,0 l/m 0 min 0 min 0 W/m 12,9 km/h (3 Bft) 97,87 %
19.11.2022 04:22 3,4 C 2,8 C 0,6 C 98 % 1008,5 hPa 0,0 l/m 0 min 0 min 0 W/m 9,7 km/h (2 Bft) 100,00 %
19.11.2022 04:24 3,4 C 2,8 C 1,1 C 97 % 1008,5 hPa 0,0 l/m 0 min 0 min 0 W/m 16,1 km/h (3 Bft) 97,87 %
19.11.2022 04:26 3,4 C 2,8 C 1,1 C 97 % 1008,5 hPa 0,0 l/m 0 min 0 min 0 W/m 6,4 km/h (2 Bft) 100,00 %
19.11.2022 04:28 3,5 C 2,8 C 1,1 C 98 % 1008,6 hPa 0,0 l/m 0 min 0 min 0 W/m 12,9 km/h (3 Bft) 97,87 %
19.11.2022 04:30 3,4 C 2,8 C 0,6 C 98 % 1008,6 hPa 0,0 l/m 0 min 0 min 0 W/m 19,3 km/h (3 Bft) 97,87 %
19.11.2022 04:32 3,4 C 2,8 C 0,6 C 98 % 1008,5 hPa 0,0 l/m 0 min 0 min 0 W/m 9,7 km/h (2 Bft) 97,87 %
19.11.2022 04:34 3,4 C 2,8 C 0,6 C 98 % 1008,6 hPa 0,0 l/m 0 min 0 min 0 W/m 9,7 km/h (2 Bft) 100,00 %
19.11.2022 04:36 3,4 C 2,8 C 0,6 C 98 % 1008,5 hPa 0,0 l/m 0 min 0 min 0 W/m 16,1 km/h (3 Bft) 95,65 %
19.11.2022 04:38 3,3 C 2,8 C 0,6 C 97 % 1008,5 hPa 0,0 l/m 0 min 0 min 0 W/m 9,7 km/h (2 Bft) 100,00 %
19.11.2022 04:40 3,3 C 2,8 C 0,6 C 97 % 1008,5 hPa 0,0 l/m 0 min 0 min 0 W/m 12,9 km/h (3 Bft) 100,00 %
19.11.2022 04:42 3,3 C 2,8 C 0,6 C 97 % 1008,5 hPa 0,0 l/m 0 min 0 min 0 W/m 22,5 km/h (4 Bft) 97,87 %
19.11.2022 04:44 3,2 C 2,8 C 0,6 C 97 % 1008,6 hPa 0,0 l/m 0 min 0 min 0 W/m 9,7 km/h (2 Bft) 97,87 %
19.11.2022 04:46 3,2 C 2,8 C 0,6 C 97 % 1008,6 hPa 0,0 l/m 0 min 0 min 0 W/m 12,9 km/h (3 Bft) 100,00 %
19.11.2022 04:48 3,2 C 2,8 C 0,6 C 97 % 1008,6 hPa 0,0 l/m 0 min 0 min 0 W/m 9,7 km/h (2 Bft) 97,83 %
19.11.2022 04:50 3,2 C 2,8 C 0,6 C 97 % 1008,6 hPa 0,0 l/m 0 min 0 min 0 W/m 16,1 km/h (3 Bft) 95,74 %
19.11.2022 04:52 3,2 C 2,8 C 0,6 C 97 % 1008,6 hPa 0,0 l/m 0 min 0 min 0 W/m 12,9 km/h (3 Bft) 97,87 %
19.11.2022 04:54 3,2 C 2,8 C 0,6 C 97 % 1008,7 hPa 0,0 l/m 0 min 0 min 0 W/m 9,7 km/h (2 Bft) 100,00 %
19.11.2022 04:56 3,2 C 2,8 C 0,6 C 97 % 1008,7 hPa 0,0 l/m 0 min 0 min 0 W/m 9,7 km/h (2 Bft) 100,00 %
19.11.2022 04:58 3,2 C 2,8 C 0,6 C 97 % 1008,7 hPa 0,0 l/m 0 min 0 min 0 W/m 9,7 km/h (2 Bft) 97,87 %
19.11.2022 05:00 3,2 C 2,8 C 0,6 C 97 % 1008,7 hPa 0,0 l/m 0 min 0 min 0 W/m 9,7 km/h (2 Bft) 95,65 %
19.11.2022 05:02 3,2 C 2,8 C 0,6 C 97 % 1008,7 hPa 0,0 l/m 0 min 0 min 0 W/m 16,1 km/h (3 Bft) 95,74 %
19.11.2022 05:04 3,2 C 2,8 C 0,6 C 97 % 1008,7 hPa 0,0 l/m 0 min 0 min 0 W/m 6,4 km/h (2 Bft) 96,15 %
19.11.2022 05:06 3,2 C 2,8 C 0,6 C 97 % 1008,8 hPa 0,0 l/m 0 min 0 min 0 W/m 6,4 km/h (2 Bft) 95,74 %
19.11.2022 05:08 3,2 C 2,8 C 0,6 C 97 % 1008,7 hPa 0,0 l/m 0 min 0 min 0 W/m 6,4 km/h (2 Bft) 95,74 %
19.11.2022 05:10 3,2 C 2,8 C 0,6 C 97 % 1008,8 hPa 0,0 l/m 0 min 0 min 0 W/m 6,4 km/h (2 Bft) 95,65 %
19.11.2022 05:12 3,2 C 2,8 C 0,6 C 97 % 1008,7 hPa 0,0 l/m 0 min 0 min 0 W/m 12,9 km/h (3 Bft) 93,62 %
19.11.2022 05:14 3,2 C 2,8 C 0,6 C 97 % 1008,8 hPa 0,0 l/m 0 min 0 min 0 W/m 12,9 km/h (3 Bft) 95,74 %
19.11.2022 05:16 3,2 C 2,8 C 0,6 C 97 % 1008,8 hPa 0,0 l/m 0 min 0 min 0 W/m 16,1 km/h (3 Bft) 91,49 %
19.11.2022 05:18 3,2 C 2,8 C 0,6 C 97 % 1008,8 hPa 0,0 l/m 0 min 0 min 0 W/m 9,7 km/h (2 Bft) 95,74 %
19.11.2022 05:20 3,1 C 2,8 C 0,0 C 97 % 1008,8 hPa 0,0 l/m 0 min 0 min 0 W/m 9,7 km/h (2 Bft) 95,74 %
19.11.2022 05:22 3,1 C 2,8 C 0,0 C 97 % 1008,8 hPa 0,0 l/m 0 min 0 min 0 W/m 9,7 km/h (2 Bft) 95,65 %
19.11.2022 05:24 3,1 C 2,8 C 0,6 C 97 % 1008,8 hPa 0,0 l/m 0 min 0 min 0 W/m 12,9 km/h (3 Bft) 95,74 %
19.11.2022 05:26 3,1 C 2,8 C 0,6 C 97 % 1008,8 hPa 0,0 l/m 0 min 0 min 0 W/m 16,1 km/h (3 Bft) 95,74 %
19.11.2022 05:28 3,1 C 2,8 C 0,0 C 97 % 1008,8 hPa 0,0 l/m 0 min 0 min 0 W/m 16,1 km/h (3 Bft) 93,62 %
19.11.2022 05:30 3,0 C 2,8 C 0,6 C 97 % 1008,9 hPa 0,0 l/m 0 min 0 min 0 W/m 12,9 km/h (3 Bft) 95,74 %
19.11.2022 05:32 3,0 C 2,8 C 0,0 C 97 % 1008,9 hPa 0,0 l/m 0 min 0 min 0 W/m 16,1 km/h (3 Bft) 97,87 %
19.11.2022 05:34 3,0 C 2,8 C 0,0 C 97 % 1008,9 hPa 0,0 l/m 0 min 0 min 0 W/m 16,1 km/h (3 Bft) 100,00 %
19.11.2022 05:36 3,0 C 2,8 C 0,0 C 97 % 1008,9 hPa 0,0 l/m 0 min 0 min 0 W/m 12,9 km/h (3 Bft) 100,00 %
19.11.2022 05:38 3,0 C 2,8 C 0,0 C 97 % 1008,9 hPa 0,0 l/m 0 min 0 min 0 W/m 6,4 km/h (2 Bft) 100,00 %
19.11.2022 05:40 2,9 C 2,2 C 0,0 C 97 % 1009,0 hPa 0,0 l/m 0 min 0 min 0 W/m 12,9 km/h (3 Bft) 100,00 %
19.11.2022 05:42 2,9 C 2,8 C 0,0 C 97 % 1009,0 hPa 0,0 l/m 0 min 0 min 0 W/m 9,7 km/h (2 Bft) 100,00 %
19.11.2022 05:44 2,9 C 2,8 C 0,0 C 97 % 1009,0 hPa 0,0 l/m 0 min 0 min 0 W/m 12,9 km/h (3 Bft) 100,00 %
19.11.2022 05:46 2,9 C 2,8 C 0,0 C 97 % 1009,1 hPa 0,0 l/m 0 min 0 min 0 W/m 9,7 km/h (2 Bft) 97,83 %
19.11.2022 05:48 2,9 C 2,8 C 0,0 C 97 % 1009,1 hPa 0,0 l/m 0 min 0 min 0 W/m 6,4 km/h (2 Bft) 100,00 %
19.11.2022 05:50 2,9 C 2,8 C 0,0 C 97 % 1009,1 hPa 0,0 l/m 0 min 0 min 0 W/m 12,9 km/h (3 Bft) 100,00 %
19.11.2022 05:52 2,9 C 2,8 C 0,0 C 97 % 1009,1 hPa 0,0 l/m 0 min 0 min 0 W/m 19,3 km/h (3 Bft) 43,24 %
19.11.2022 05:54 2,9 C 2,8 C 0,0 C 97 % 1009,1 hPa 0,0 l/m 0 min 0 min 0 W/m 12,9 km/h (3 Bft) 100,00 %
19.11.2022 05:56 2,9 C 2,8 C 0,0 C 97 % 1009,2 hPa 0,0 l/m 0 min 0 min 0 W/m 12,9 km/h (3 Bft) 97,83 %
19.11.2022 05:58 2,9 C 2,2 C 0,0 C 96 % 1009,2 hPa 0,0 l/m 0 min 0 min 0 W/m 16,1 km/h (3 Bft) 100,00 %
19.11.2022 06:00 2,9 C 2,2 C 0,0 C 96 % 1009,3 hPa 0,0 l/m 0 min 0 min 0 W/m 19,3 km/h (3 Bft) 97,87 %
19.11.2022 06:02 2,9 C 2,2 C 0,0 C 96 % 1009,2 hPa 0,0 l/m 0 min 0 min 0 W/m 16,1 km/h (3 Bft) 95,74 %
19.11.2022 06:04 2,9 C 2,2 C 0,0 C 96 % 1009,2 hPa 0,0 l/m 0 min 0 min 0 W/m 12,9 km/h (3 Bft) 100,00 %
19.11.2022 06:08 2,9 C 2,2 C 0,0 C 96 % 1009,2 hPa 0,0 l/m 0 min 0 min 0 W/m 16,1 km/h (3 Bft) 100,00 %
19.11.2022 06:10 2,9 C 2,2 C 0,0 C 96 % 1009,2 hPa 0,0 l/m 0 min 0 min 0 W/m 9,7 km/h (2 Bft) 100,00 %
19.11.2022 06:12 2,9 C 2,2 C 0,0 C 96 % 1009,2 hPa 0,0 l/m 0 min 0 min 0 W/m 12,9 km/h (3 Bft) 100,00 %
19.11.2022 06:14 2,9 C 2,2 C 0,0 C 96 % 1009,2 hPa 0,0 l/m 0 min 0 min 0 W/m 9,7 km/h (2 Bft) 97,83 %
19.11.2022 06:16 2,9 C 2,2 C 0,0 C 96 % 1009,3 hPa 0,0 l/m 0 min 0 min 0 W/m 9,7 km/h (2 Bft) 100,00 %
19.11.2022 06:18 2,9 C 2,2 C 0,0 C 96 % 1009,3 hPa 0,0 l/m 0 min 0 min 0 W/m 12,9 km/h (3 Bft) 100,00 %
19.11.2022 06:20 2,9 C 2,2 C 0,0 C 96 % 1009,3 hPa 0,0 l/m 0 min 0 min 0 W/m 9,7 km/h (2 Bft) 100,00 %
19.11.2022 06:22 2,9 C 2,2 C 0,0 C 96 % 1009,4 hPa 0,0 l/m 0 min 0 min 0 W/m 12,9 km/h (3 Bft) 100,00 %
19.11.2022 06:24 2,9 C 2,2 C 0,0 C 96 % 1009,4 hPa 0,0 l/m 0 min 0 min 0 W/m 12,9 km/h (3 Bft) 100,00 %
19.11.2022 06:26 2,9 C 2,2 C 0,0 C 96 % 1009,4 hPa 0,0 l/m 0 min 0 min 0 W/m 12,9 km/h (3 Bft) 100,00 %
19.11.2022 06:28 2,9 C 2,2 C 0,0 C 96 % 1009,4 hPa 0,0 l/m 0 min 0 min 0 W/m 16,1 km/h (3 Bft) 100,00 %
19.11.2022 06:30 2,9 C 2,2 C 0,0 C 96 % 1009,4 hPa 0,0 l/m 0 min 0 min 0 W/m 6,4 km/h (2 Bft) 100,00 %
19.11.2022 06:32 2,9 C 2,2 C 0,0 C 96 % 1009,4 hPa 0,0 l/m 0 min 0 min 0 W/m 16,1 km/h (3 Bft) 97,87 %
19.11.2022 06:34 2,9 C 2,2 C 0,0 C 96 % 1009,4 hPa 0,0 l/m 0 min 0 min 0 W/m 9,7 km/h (2 Bft) 97,87 %
19.11.2022 06:36 2,9 C 2,2 C 0,0 C 96 % 1009,4 hPa 0,0 l/m 0 min 0 min 0 W/m 9,7 km/h (2 Bft) 97,87 %
19.11.2022 06:41 2,9 C 2,2 C 0,0 C 96 % 1009,4 hPa 0,0 l/m 0 min 0 min 0 W/m 9,7 km/h (2 Bft) 95,45 %
19.11.2022 06:42 2,9 C 2,2 C 0,0 C 96 % 1009,4 hPa 0,0 l/m 0 min 0 min 0 W/m 6,4 km/h (2 Bft) 95,83 %
19.11.2022 06:44 2,9 C 2,2 C 0,0 C 96 % 1009,3 hPa 0,0 l/m 0 min 0 min 0 W/m 9,7 km/h (2 Bft) 93,62 %
19.11.2022 06:46 2,9 C 2,2 C 0,0 C 96 % 1009,4 hPa 0,0 l/m 0 min 0 min 0 W/m 12,9 km/h (3 Bft) 93,48 %
19.11.2022 06:48 2,9 C 2,2 C 0,0 C 96 % 1009,4 hPa 0,0 l/m 0 min 0 min 0 W/m 6,4 km/h (2 Bft) 97,22 %
19.11.2022 06:50 2,9 C 2,2 C 0,0 C 96 % 1009,5 hPa 0,0 l/m 0 min 0 min 0 W/m 16,1 km/h (3 Bft) 93,48 %
19.11.2022 06:52 2,8 C 2,2 C 0,0 C 96 % 1009,6 hPa 0,0 l/m 0 min 0 min 0 W/m 19,3 km/h (3 Bft) 91,49 %
19.11.2022 06:54 2,8 C 2,2 C 0,0 C 96 % 1009,6 hPa 0,0 l/m 0 min 0 min 0 W/m 12,9 km/h (3 Bft) 91,49 %
19.11.2022 06:56 2,8 C 2,2 C 0,0 C 96 % 1009,7 hPa 0,0 l/m 0 min 0 min 0 W/m 9,7 km/h (2 Bft) 93,62 %
19.11.2022 06:58 2,8 C 2,2 C 0,0 C 96 % 1009,7 hPa 0,0 l/m 0 min 0 min 0 W/m 12,9 km/h (3 Bft) 94,83 %
19.11.2022 07:00 2,7 C 2,2 C 0,0 C 96 % 1009,8 hPa 0,0 l/m 0 min 0 min 0 W/m 6,4 km/h (2 Bft) 94,44 %
19.11.2022 07:02 2,7 C 2,2 C 0,0 C 96 % 1009,8 hPa 0,0 l/m 0 min 0 min 0 W/m 9,7 km/h (2 Bft) 93,48 %
19.11.2022 07:04 2,7 C 2,2 C 0,0 C 96 % 1009,8 hPa 0,0 l/m 0 min 0 min 0 W/m 9,7 km/h (2 Bft) 94,23 %
19.11.2022 07:06 2,7 C 2,2 C 0,0 C 96 % 1009,8 hPa 0,0 l/m 0 min 0 min 0 W/m 6,4 km/h (2 Bft) 91,38 %
19.11.2022 07:08 2,7 C 2,2 C 0,0 C 96 % 1009,8 hPa 0,0 l/m 0 min 0 min 0 W/m 9,7 km/h (2 Bft) 91,67 %
19.11.2022 07:10 2,7 C 2,2 C 0,0 C 96 % 1009,9 hPa 0,0 l/m 0 min 0 min 0 W/m 19,3 km/h (3 Bft) 93,62 %
19.11.2022 07:12 2,6 C 2,2 C 0,0 C 96 % 1009,8 hPa 0,0 l/m 0 min 0 min 0 W/m 12,9 km/h (3 Bft) 93,48 %
19.11.2022 07:14 2,6 C 2,2 C 0,0 C 96 % 1009,8 hPa 0,0 l/m 0 min 0 min 0 W/m 9,7 km/h (2 Bft) 95,74 %
19.11.2022 07:16 2,6 C 2,2 C 0,0 C 96 % 1009,9 hPa 0,0 l/m 0 min 0 min 0 W/m 9,7 km/h (2 Bft) 95,74 %
19.11.2022 07:18 2,7 C 2,2 C 0,0 C 95 % 1009,9 hPa 0,0 l/m 0 min 0 min 0 W/m 6,4 km/h (2 Bft) 93,62 %
19.11.2022 07:20 2,7 C 2,2 C 0,0 C 95 % 1009,9 hPa 0,0 l/m 0 min 0 min 0 W/m 9,7 km/h (2 Bft) 95,74 %
19.11.2022 07:22 2,6 C 2,2 C 0,0 C 95 % 1009,9 hPa 0,0 l/m 0 min 0 min 0 W/m 6,4 km/h (2 Bft) 95,74 %
19.11.2022 07:24 2,7 C 2,2 C 0,0 C 95 % 1009,9 hPa 0,0 l/m 0 min 0 min 0 W/m 9,7 km/h (2 Bft) 95,65 %
19.11.2022 07:26 2,6 C 2,2 C 0,0 C 95 % 1010,0 hPa 0,0 l/m 0 min 0 min 0 W/m 9,7 km/h (2 Bft) 95,74 %
19.11.2022 07:28 2,6 C 2,2 C 0,0 C 95 % 1010,0 hPa 0,0 l/m 0 min 0 min 0 W/m 6,4 km/h (2 Bft) 95,74 %
19.11.2022 07:30 2,6 C 2,2 C 0,0 C 95 % 1010,0 hPa 0,0 l/m 0 min 0 min 0 W/m 6,4 km/h (2 Bft) 93,62 %
19.11.2022 07:32 2,6 C 2,2 C 0,0 C 95 % 1010,0 hPa 0,0 l/m 0 min 0 min 0 W/m 12,9 km/h (3 Bft) 93,62 %
19.11.2022 07:34 2,6 C 2,2 C 0,0 C 95 % 1010,1 hPa 0,0 l/m 0 min 0 min 0 W/m 9,7 km/h (2 Bft) 95,74 %
19.11.2022 07:36 2,6 C 2,2 C 0,0 C 95 % 1010,1 hPa 0,0 l/m 0 min 0 min 0 W/m 16,1 km/h (3 Bft) 95,65 %
19.11.2022 07:38 2,6 C 2,2 C 0,0 C 95 % 1010,1 hPa 0,0 l/m 0 min 0 min 0 W/m 9,7 km/h (2 Bft) 97,87 %
19.11.2022 07:40 2,6 C 2,2 C 0,0 C 95 % 1010,2 hPa 0,0 l/m 0 min 0 min 0 W/m 16,1 km/h (3 Bft) 51,22 %
19.11.2022 07:42 2,6 C 2,2 C 0,0 C 95 % 1010,2 hPa 0,0 l/m 0 min 0 min 0 W/m 22,5 km/h (4 Bft) 100,00 %
19.11.2022 07:44 2,6 C 2,2 C 0,0 C 95 % 1010,3 hPa 0,0 l/m 0 min 0 min 0 W/m 12,9 km/h (3 Bft) 97,87 %
19.11.2022 07:46 2,6 C 2,2 C 0,0 C 95 % 1010,3 hPa 0,0 l/m 0 min 0 min 0 W/m 12,9 km/h (3 Bft) 95,74 %
19.11.2022 07:48 2,6 C 2,2 C 0,0 C 95 % 1010,3 hPa 0,0 l/m 0 min 0 min 0 W/m 6,4 km/h (2 Bft) 100,00 %
19.11.2022 07:50 2,6 C 2,2 C 0,0 C 95 % 1010,2 hPa 0,0 l/m 0 min 0 min 0 W/m 9,7 km/h (2 Bft) 100,00 %
19.11.2022 07:52 2,6 C 2,2 C 0,0 C 95 % 1010,3 hPa 0,0 l/m 0 min 0 min 0 W/m 9,7 km/h (2 Bft) 100,00 %
19.11.2022 07:54 2,6 C 2,2 C 0,0 C 95 % 1010,4 hPa 0,0 l/m 0 min 0 min 0 W/m 9,7 km/h (2 Bft) 97,87 %
19.11.2022 07:56 2,6 C 2,2 C 0,0 C 95 % 1010,4 hPa 0,0 l/m 0 min 0 min 0 W/m 12,9 km/h (3 Bft) 100,00 %
19.11.2022 07:58 2,6 C 2,2 C 0,0 C 95 % 1010,4 hPa 0,0 l/m 0 min 0 min 0 W/m 16,1 km/h (3 Bft) 100,00 %
19.11.2022 08:00 2,5 C 2,2 C 0,0 C 95 % 1010,4 hPa 0,0 l/m 0 min 0 min 0 W/m 9,7 km/h (2 Bft) 100,00 %
19.11.2022 08:02 2,5 C 2,2 C 0,0 C 95 % 1010,4 hPa 0,0 l/m 0 min 0 min 0 W/m 16,1 km/h (3 Bft) 97,87 %
19.11.2022 08:04 2,5 C 2,2 C 0,0 C 95 % 1010,4 hPa 0,0 l/m 0 min 0 min 0 W/m 12,9 km/h (3 Bft) 98,00 %
19.11.2022 08:06 2,5 C 2,2 C 0,0 C 95 % 1010,4 hPa 0,0 l/m 0 min 0 min 0 W/m 9,7 km/h (2 Bft) 100,00 %
19.11.2022 08:08 2,5 C 2,2 C 0,0 C 95 % 1010,5 hPa 0,0 l/m 0 min 0 min 0 W/m 12,9 km/h (3 Bft) 100,00 %
19.11.2022 08:10 2,5 C 2,2 C 0,0 C 95 % 1010,5 hPa 0,0 l/m 0 min 0 min 0 W/m 12,9 km/h (3 Bft) 100,00 %
19.11.2022 08:12 2,5 C 2,2 C 0,0 C 95 % 1010,6 hPa 0,0 l/m 0 min 0 min 0 W/m 12,9 km/h (3 Bft) 100,00 %
19.11.2022 08:14 2,4 C 2,2 C 0,0 C 95 % 1010,6 hPa 0,0 l/m 0 min 0 min 4 W/m 12,9 km/h (3 Bft) 100,00 %
19.11.2022 08:16 2,4 C 2,2 C 0,0 C 94 % 1010,6 hPa 0,0 l/m 0 min 0 min 5 W/m 6,4 km/h (2 Bft) 100,00 %
19.11.2022 08:18 2,4 C 2,2 C 0,0 C 94 % 1010,6 hPa 0,0 l/m 0 min 0 min 5 W/m 9,7 km/h (2 Bft) 100,00 %
19.11.2022 08:20 2,4 C 2,2 C 0,0 C 94 % 1010,7 hPa 0,0 l/m 0 min 0 min 6 W/m 12,9 km/h (3 Bft) 97,87 %
19.11.2022 08:22 2,4 C 2,2 C 0,0 C 94 % 1010,7 hPa 0,0 l/m 0 min 0 min 7 W/m 6,4 km/h (2 Bft) 100,00 %
19.11.2022 08:24 2,5 C 2,2 C 0,0 C 94 % 1010,7 hPa 0,0 l/m 0 min 0 min 10 W/m 9,7 km/h (2 Bft) 100,00 %
19.11.2022 08:26 2,5 C 2,2 C 0,0 C 94 % 1010,7 hPa 0,0 l/m 0 min 0 min 11 W/m 16,1 km/h (3 Bft) 100,00 %
19.11.2022 08:28 2,5 C 2,2 C 0,0 C 94 % 1010,8 hPa 0,0 l/m 0 min 0 min 12 W/m 9,7 km/h (2 Bft) 97,87 %
19.11.2022 08:30 2,5 C 2,2 C 0,0 C 94 % 1010,8 hPa 0,0 l/m 0 min 0 min 13 W/m 16,1 km/h (3 Bft) 97,87 %
19.11.2022 08:32 2,4 C 2,2 C 0,0 C 94 % 1010,8 hPa 0,0 l/m 0 min 0 min 15 W/m 6,4 km/h (2 Bft) 97,87 %
19.11.2022 08:34 2,4 C 2,2 C 0,0 C 94 % 1010,8 hPa 0,0 l/m 0 min 0 min 16 W/m 6,4 km/h (2 Bft) 97,87 %
19.11.2022 08:36 2,4 C 2,2 C 0,0 C 94 % 1010,8 hPa 0,0 l/m 0 min 0 min 14 W/m 12,9 km/h (3 Bft) 97,83 %
19.11.2022 08:38 2,4 C 2,2 C 0,0 C 94 % 1010,9 hPa 0,0 l/m 0 min 0 min 14 W/m 9,7 km/h (2 Bft) 97,87 %
19.11.2022 08:40 2,4 C 2,2 C 0,0 C 94 % 1010,9 hPa 0,0 l/m 0 min 0 min 16 W/m 12,9 km/h (3 Bft) 97,87 %
19.11.2022 08:42 2,4 C 2,2 C 0,0 C 94 % 1010,9 hPa 0,0 l/m 0 min 0 min 18 W/m 12,9 km/h (3 Bft) 95,74 %
19.11.2022 08:44 2,4 C 2,2 C 0,0 C 94 % 1010,9 hPa 0,0 l/m 0 min 0 min 21 W/m 16,1 km/h (3 Bft) 97,87 %
19.11.2022 08:46 2,4 C 2,2 C 0,0 C 94 % 1010,9 hPa 0,0 l/m 0 min 0 min 23 W/m 12,9 km/h (3 Bft) 97,87 %
19.11.2022 08:48 2,4 C 2,2 C 0,0 C 94 % 1010,9 hPa 0,0 l/m 0 min 0 min 27 W/m 9,7 km/h (2 Bft) 97,83 %
19.11.2022 08:50 2,4 C 2,2 C 0,0 C 94 % 1011,0 hPa 0,0 l/m 0 min 0 min 27 W/m 12,9 km/h (3 Bft) 97,87 %
19.11.2022 08:52 2,4 C 2,2 C 0,0 C 94 % 1011,0 hPa 0,0 l/m 0 min 0 min 22 W/m 12,9 km/h (3 Bft) 97,87 %
19.11.2022 08:54 2,4 C 2,2 C 0,0 C 94 % 1011,0 hPa 0,0 l/m 0 min 0 min 18 W/m 16,1 km/h (3 Bft) 97,87 %
19.11.2022 08:56 2,4 C 2,2 C 0,0 C 94 % 1011,0 hPa 0,0 l/m 0 min 0 min 16 W/m 9,7 km/h (2 Bft) 97,87 %
19.11.2022 08:58 2,4 C 2,2 C 0,0 C 94 % 1011,0 hPa 0,0 l/m 0 min 0 min 14 W/m 12,9 km/h (3 Bft) 95,74 %
19.11.2022 09:00 2,4 C 2,2 C 0,0 C 94 % 1011,0 hPa 0,0 l/m 0 min 0 min 14 W/m 12,9 km/h (3 Bft) 100,00 %
19.11.2022 09:02 2,4 C 2,2 C 0,0 C 94 % 1011,0 hPa 0,0 l/m 0 min 0 min 14 W/m 16,1 km/h (3 Bft) 100,00 %
19.11.2022 09:04 2,4 C 2,2 C 0,0 C 94 % 1011,1 hPa 0,0 l/m 0 min 0 min 15 W/m 12,9 km/h (3 Bft) 100,00 %
19.11.2022 09:06 2,4 C 2,2 C 0,0 C 94 % 1011,1 hPa 0,0 l/m 0 min 0 min 18 W/m 9,7 km/h (2 Bft) 93,62 %
19.11.2022 09:08 2,4 C 2,2 C 0,0 C 94 % 1011,1 hPa 0,0 l/m 0 min 0 min 20 W/m 12,9 km/h (3 Bft) 95,65 %
19.11.2022 09:10 2,4 C 2,2 C 0,0 C 94 % 1011,2 hPa 0,0 l/m 0 min 0 min 21 W/m 9,7 km/h (2 Bft) 100,00 %
19.11.2022 09:12 2,4 C 2,2 C 0,0 C 94 % 1011,2 hPa 0,0 l/m 0 min 0 min 22 W/m 6,4 km/h (2 Bft) 100,00 %
19.11.2022 09:14 2,4 C 2,2 C 0,0 C 94 % 1011,2 hPa 0,0 l/m 0 min 0 min 23 W/m 9,7 km/h (2 Bft) 97,87 %
19.11.2022 09:16 2,4 C 2,2 C 0,0 C 94 % 1011,3 hPa 0,0 l/m 0 min 0 min 23 W/m 6,4 km/h (2 Bft) 97,87 %
19.11.2022 09:18 2,4 C 2,2 C 0,0 C 94 % 1011,3 hPa 0,0 l/m 0 min 0 min 23 W/m 9,7 km/h (2 Bft) 95,74 %
19.11.2022 09:20 2,4 C 2,2 C 0,0 C 94 % 1011,3 hPa 0,0 l/m 0 min 0 min 25 W/m 6,4 km/h (2 Bft) 97,83 %
19.11.2022 09:22 2,4 C 2,2 C 0,0 C 94 % 1011,3 hPa 0,0 l/m 0 min 0 min 25 W/m 9,7 km/h (2 Bft) 95,74 %
19.11.2022 09:24 2,4 C 2,2 C 0,0 C 94 % 1011,3 hPa 0,0 l/m 0 min 0 min 25 W/m 9,7 km/h (2 Bft) 97,87 %
19.11.2022 09:26 2,4 C 2,2 C 0,0 C 94 % 1011,3 hPa 0,0 l/m 0 min 0 min 28 W/m 9,7 km/h (2 Bft) 95,74 %
19.11.2022 09:28 2,3 C 2,2 C 0,0 C 94 % 1011,3 hPa 0,0 l/m 0 min 0 min 31 W/m 6,4 km/h (2 Bft) 95,74 %
19.11.2022 09:30 2,3 C 2,2 C 0,0 C 94 % 1011,3 hPa 0,0 l/m 0 min 0 min 33 W/m 9,7 km/h (2 Bft) 97,87 %
19.11.2022 09:32 2,4 C 2,2 C 0,0 C 94 % 1011,3 hPa 0,0 l/m 0 min 0 min 35 W/m 6,4 km/h (2 Bft) 97,83 %
19.11.2022 09:34 2,4 C 2,2 C 0,0 C 93 % 1011,3 hPa 0,0 l/m 0 min 0 min 37 W/m 12,9 km/h (3 Bft) 97,87 %
19.11.2022 09:36 2,4 C 2,2 C 0,0 C 93 % 1011,4 hPa 0,0 l/m 0 min 0 min 39 W/m 9,7 km/h (2 Bft) 97,87 %
19.11.2022 09:38 2,4 C 2,2 C 0,0 C 93 % 1011,4 hPa 0,0 l/m 0 min 0 min 40 W/m 12,9 km/h (3 Bft) 97,92 %
19.11.2022 09:40 2,4 C 2,2 C 0,0 C 93 % 1011,5 hPa 0,0 l/m 0 min 0 min 44 W/m 6,4 km/h (2 Bft) 97,87 %
19.11.2022 09:42 2,4 C 2,2 C 0,0 C 93 % 1011,3 hPa 0,0 l/m 0 min 0 min 45 W/m 9,7 km/h (2 Bft) 97,83 %
19.11.2022 09:44 2,4 C 2,2 C 0,0 C 93 % 1011,3 hPa 0,0 l/m 0 min 0 min 43 W/m 12,9 km/h (3 Bft) 97,87 %
19.11.2022 09:46 2,4 C 2,2 C 0,0 C 93 % 1011,3 hPa 0,0 l/m 0 min 0 min 40 W/m 9,7 km/h (2 Bft) 95,74 %
19.11.2022 09:48 2,4 C 2,8 C 0,0 C 93 % 1011,3 hPa 0,0 l/m 0 min 0 min 40 W/m 9,7 km/h (2 Bft) 93,62 %
19.11.2022 09:50 2,4 C 2,2 C 0,0 C 93 % 1011,3 hPa 0,0 l/m 0 min 0 min 42 W/m 12,9 km/h (3 Bft) 100,00 %
19.11.2022 09:52 2,4 C 2,2 C 0,0 C 93 % 1011,3 hPa 0,0 l/m 0 min 0 min 44 W/m 6,4 km/h (2 Bft) 100,00 %
19.11.2022 09:54 2,5 C 2,2 C 0,0 C 93 % 1011,4 hPa 0,0 l/m 0 min 0 min 42 W/m 12,9 km/h (3 Bft) 100,00 %
19.11.2022 09:56 2,5 C 2,2 C 0,0 C 93 % 1011,4 hPa 0,0 l/m 0 min 0 min 42 W/m 12,9 km/h (3 Bft) 100,00 %
19.11.2022 09:58 2,5 C 2,2 C 0,0 C 93 % 1011,5 hPa 0,0 l/m 0 min 0 min 40 W/m 16,1 km/h (3 Bft) 100,00 %
19.11.2022 10:00 2,5 C 2,2 C 0,0 C 93 % 1011,5 hPa 0,0 l/m 0 min 0 min 36 W/m 16,1 km/h (3 Bft) 97,87 %
19.11.2022 10:02 2,5 C 2,2 C 0,0 C 93 % 1011,5 hPa 0,0 l/m 0 min 0 min 34 W/m 9,7 km/h (2 Bft) 97,92 %
19.11.2022 10:04 2,5 C 2,2 C 0,0 C 93 % 1011,6 hPa 0,0 l/m 0 min 0 min 34 W/m 6,4 km/h (2 Bft) 97,87 %
19.11.2022 10:06 2,5 C 2,2 C 0,0 C 93 % 1011,6 hPa 0,0 l/m 0 min 0 min 33 W/m 6,4 km/h (2 Bft) 97,83 %
19.11.2022 10:08 2,6 C 2,2 C 0,0 C 93 % 1011,6 hPa 0,0 l/m 0 min 0 min 33 W/m 9,7 km/h (2 Bft) 95,74 %
19.11.2022 10:10 2,5 C 2,2 C 0,0 C 92 % 1011,7 hPa 0,0 l/m 0 min 0 min 34 W/m 16,1 km/h (3 Bft) 95,74 %
19.11.2022 10:12 2,5 C 2,2 C 0,0 C 92 % 1011,7 hPa 0,0 l/m 0 min 0 min 36 W/m 9,7 km/h (2 Bft) 95,74 %
19.11.2022 10:14 2,5 C 2,2 C 0,0 C 92 % 1011,8 hPa 0,0 l/m 0 min 0 min 35 W/m 6,4 km/h (2 Bft) 93,62 %
19.11.2022 10:16 2,5 C 2,2 C 0,0 C 92 % 1011,8 hPa 0,0 l/m 0 min 0 min 33 W/m 6,4 km/h (2 Bft) 95,74 %
19.11.2022 10:18 2,5 C 2,2 C 0,0 C 92 % 1011,8 hPa 0,0 l/m 0 min 0 min 32 W/m 19,3 km/h (3 Bft) 93,48 %
19.11.2022 10:20 2,5 C 2,2 C 0,0 C 92 % 1011,8 hPa 0,0 l/m 0 min 0 min 33 W/m 12,9 km/h (3 Bft) 51,11 %
19.11.2022 10:22 2,5 C 2,2 C 0,0 C 92 % 1011,8 hPa 0,0 l/m 0 min 0 min 33 W/m 12,9 km/h (3 Bft) 97,44 %
19.11.2022 10:24 2,5 C 2,2 C 0,0 C 92 % 1011,8 hPa 0,0 l/m 0 min 0 min 33 W/m 6,4 km/h (2 Bft) 93,62 %
19.11.2022 10:26 2,5 C 2,2 C 0,0 C 92 % 1011,8 hPa 0,0 l/m 0 min 0 min 35 W/m 16,1 km/h (3 Bft) 93,62 %
19.11.2022 10:28 2,5 C 2,2 C 0,0 C 92 % 1011,9 hPa 0,0 l/m 0 min 0 min 39 W/m 6,4 km/h (2 Bft) 97,83 %
19.11.2022 10:33 2,6 C 2,2 C 0,0 C 92 % 1011,8 hPa 0,0 l/m 0 min 0 min 44 W/m 16,1 km/h (3 Bft) 94,29 %
19.11.2022 10:34 2,6 C 2,2 C 0,0 C 92 % 1011,8 hPa 0,0 l/m 0 min 0 min 44 W/m 6,4 km/h (2 Bft) 91,30 %
19.11.2022 10:36 2,6 C 2,2 C 0,0 C 92 % 1011,8 hPa 0,0 l/m 0 min 0 min 45 W/m 9,7 km/h (2 Bft) 95,74 %
19.11.2022 10:38 2,6 C 2,2 C 0,0 C 91 % 1011,8 hPa 0,0 l/m 0 min 0 min 46 W/m 9,7 km/h (2 Bft) 89,36 %
19.11.2022 10:40 2,6 C 2,2 C 0,0 C 91 % 1012,0 hPa 0,0 l/m 0 min 0 min 46 W/m 12,9 km/h (3 Bft) 93,48 %
19.11.2022 10:42 2,6 C 2,2 C 0,0 C 91 % 1012,0 hPa 0,0 l/m 0 min 0 min 44 W/m 16,1 km/h (3 Bft) 95,74 %
19.11.2022 10:44 2,6 C 2,2 C 0,0 C 91 % 1012,0 hPa 0,0 l/m 0 min 0 min 45 W/m 12,9 km/h (3 Bft) 93,62 %
19.11.2022 10:46 2,6 C 2,2 C 0,0 C 91 % 1012,0 hPa 0,0 l/m 0 min 0 min 47 W/m 9,7 km/h (2 Bft) 97,87 %
19.11.2022 10:48 2,6 C 2,2 C 0,0 C 91 % 1012,1 hPa 0,0 l/m 0 min 0 min 48 W/m 9,7 km/h (2 Bft) 95,74 %
19.11.2022 10:50 2,6 C 2,8 C 0,0 C 91 % 1012,2 hPa 0,0 l/m 0 min 0 min 47 W/m 9,7 km/h (2 Bft) 97,87 %
19.11.2022 10:52 2,6 C 2,8 C 0,0 C 91 % 1012,1 hPa 0,0 l/m 0 min 0 min 47 W/m 9,7 km/h (2 Bft) 97,83 %
19.11.2022 10:54 2,6 C 2,8 C 0,0 C 91 % 1012,2 hPa 0,0 l/m 0 min 0 min 50 W/m 16,1 km/h (3 Bft) 95,74 %
19.11.2022 10:56 2,7 C 2,8 C 0,0 C 91 % 1012,1 hPa 0,0 l/m 0 min 0 min 51 W/m 6,4 km/h (2 Bft) 93,62 %
19.11.2022 10:58 2,7 C 2,8 C 0,0 C 91 % 1012,1 hPa 0,0 l/m 0 min 0 min 52 W/m 9,7 km/h (2 Bft) 97,87 %
19.11.2022 11:00 2,7 C 2,8 C 0,0 C 91 % 1012,2 hPa 0,0 l/m 0 min 0 min 50 W/m 16,1 km/h (3 Bft) 95,74 %
19.11.2022 11:02 2,7 C 2,8 C 0,0 C 91 % 1012,2 hPa 0,0 l/m 0 min 0 min 48 W/m 9,7 km/h (2 Bft) 89,36 %
19.11.2022 11:04 2,7 C 2,8 C 0,0 C 91 % 1012,1 hPa 0,0 l/m 0 min 0 min 48 W/m 9,7 km/h (2 Bft) 97,83 %
19.11.2022 11:06 2,7 C 2,8 C 0,0 C 91 % 1012,2 hPa 0,0 l/m 0 min 0 min 51 W/m 9,7 km/h (2 Bft) 100,00 %
19.11.2022 11:08 2,6 C 2,8 C 0,0 C 91 % 1012,2 hPa 0,0 l/m 0 min 0 min 52 W/m 12,9 km/h (3 Bft) 97,87 %
19.11.2022 11:10 2,6 C 2,2 C 0,0 C 91 % 1012,2 hPa 0,0 l/m 0 min 0 min 52 W/m 16,1 km/h (3 Bft) 100,00 %
19.11.2022 11:12 2,6 C 2,2 C 0,0 C 91 % 1012,2 hPa 0,0 l/m 0 min 0 min 54 W/m 12,9 km/h (3 Bft) 97,87 %
19.11.2022 11:14 2,6 C 2,2 C 0,0 C 90 % 1012,3 hPa 0,0 l/m 0 min 0 min 54 W/m 12,9 km/h (3 Bft) 97,87 %
19.11.2022 11:16 2,6 C 2,2 C 0,0 C 90 % 1012,3 hPa 0,0 l/m 0 min 0 min 54 W/m 16,1 km/h (3 Bft) 97,83 %
19.11.2022 11:18 2,6 C 2,2 C 0,0 C 90 % 1012,2 hPa 0,0 l/m 0 min 0 min 55 W/m 12,9 km/h (3 Bft) 97,87 %
19.11.2022 11:20 2,5 C 2,2 C 0,0 C 90 % 1012,2 hPa 0,0 l/m 0 min 0 min 58 W/m 9,7 km/h (2 Bft) 97,87 %
19.11.2022 11:22 2,5 C 2,2 C 0,0 C 90 % 1012,2 hPa 0,0 l/m 0 min 0 min 61 W/m 16,1 km/h (3 Bft) 97,92 %
19.11.2022 11:24 2,5 C 2,2 C 0,0 C 90 % 1012,2 hPa 0,0 l/m 0 min 0 min 63 W/m 9,7 km/h (2 Bft) 100,00 %
19.11.2022 11:26 2,6 C 2,2 C 0,0 C 90 % 1012,3 hPa 0,0 l/m 0 min 0 min 63 W/m 9,7 km/h (2 Bft) 95,74 %
19.11.2022 11:28 2,6 C 2,2 C 0,0 C 91 % 1012,3 hPa 0,0 l/m 0 min 0 min 62 W/m 6,4 km/h (2 Bft) 97,83 %
19.11.2022 11:30 2,6 C 2,8 C 0,0 C 91 % 1012,3 hPa 0,0 l/m 0 min 0 min 60 W/m 3,2 km/h (1 Bft) 95,74 %
19.11.2022 11:32 2,6 C 2,2 C 0,0 C 91 % 1012,4 hPa 0,0 l/m 0 min 0 min 60 W/m 16,1 km/h (3 Bft) 97,92 %
19.11.2022 11:34 2,6 C 2,2 C 0,0 C 91 % 1012,5 hPa 0,0 l/m 0 min 0 min 60 W/m 16,1 km/h (3 Bft) 91,49 %
19.11.2022 11:36 2,5 C 2,2 C 0,0 C 91 % 1012,4 hPa 0,0 l/m 0 min 0 min 61 W/m 16,1 km/h (3 Bft) 95,74 %
19.11.2022 11:38 2,4 C 2,2 C 0,0 C 90 % 1012,5 hPa 0,0 l/m 0 min 0 min 58 W/m 12,9 km/h (3 Bft) 97,83 %
19.11.2022 11:40 2,4 C 2,2 C 0,0 C 90 % 1012,5 hPa 0,0 l/m 0 min 0 min 53 W/m 9,7 km/h (2 Bft) 95,74 %
19.11.2022 11:42 2,4 C 2,2 C 0,0 C 91 % 1012,5 hPa 0,0 l/m 0 min 0 min 54 W/m 9,7 km/h (2 Bft) 95,74 %
19.11.2022 11:44 2,4 C 2,2 C 0,0 C 91 % 1012,6 hPa 0,0 l/m 0 min 0 min 54 W/m 9,7 km/h (2 Bft) 97,87 %
19.11.2022 11:46 2,4 C 2,2 C 0,0 C 91 % 1012,6 hPa 0,0 l/m 0 min 0 min 53 W/m 16,1 km/h (3 Bft) 95,74 %
19.11.2022 11:48 2,4 C 2,2 C 0,0 C 91 % 1012,5 hPa 0,0 l/m 0 min 0 min 53 W/m 16,1 km/h (3 Bft) 97,87 %
19.11.2022 11:50 2,4 C 2,2 C 0,0 C 91 % 1012,5 hPa 0,0 l/m 0 min 0 min 54 W/m 9,7 km/h (2 Bft) 95,65 %
19.11.2022 11:52 2,3 C 2,2 C -0,6 C 91 % 1012,4 hPa 0,0 l/m 0 min 0 min 57 W/m 9,7 km/h (2 Bft) 93,62 %
19.11.2022 11:54 2,3 C 2,2 C 0,0 C 91 % 1012,4 hPa 0,0 l/m 0 min 0 min 61 W/m 9,7 km/h (2 Bft) 94,29 %
19.11.2022 11:56 2,3 C 2,2 C 0,0 C 91 % 1012,3 hPa 0,0 l/m 0 min 0 min 62 W/m 9,7 km/h (2 Bft) 93,62 %
19.11.2022 11:58 2,4 C 2,2 C 0,0 C 91 % 1012,4 hPa 0,0 l/m 0 min 0 min 64 W/m 9,7 km/h (2 Bft) 95,74 %
19.11.2022 12:00 2,4 C 2,2 C 0,0 C 91 % 1012,4 hPa 0,0 l/m 0 min 0 min 65 W/m 12,9 km/h (3 Bft) 97,87 %
19.11.2022 12:02 2,4 C 2,2 C 0,0 C 91 % 1012,4 hPa 0,0 l/m 0 min 0 min 65 W/m 6,4 km/h (2 Bft) 97,87 %
19.11.2022 12:04 2,3 C 2,2 C 0,0 C 91 % 1012,4 hPa 0,0 l/m 0 min 0 min 67 W/m 12,9 km/h (3 Bft) 89,80 %
19.11.2022 12:08 2,3 C 2,2 C 0,0 C 91 % 1012,4 hPa 0,0 l/m 0 min 0 min 65 W/m 12,9 km/h (3 Bft) 96,81 %
19.11.2022 12:10 2,3 C 2,2 C 0,0 C 91 % 1012,4 hPa 0,0 l/m 0 min 0 min 63 W/m 12,9 km/h (3 Bft) 91,49 %
19.11.2022 12:12 2,3 C 2,2 C 0,0 C 91 % 1012,4 hPa 0,0 l/m 0 min 0 min 63 W/m 6,4 km/h (2 Bft) 46,34 %
19.11.2022 12:14 2,3 C 2,2 C 0,0 C 91 % 1012,4 hPa 0,0 l/m 0 min 0 min 63 W/m 16,1 km/h (3 Bft) 95,74 %
19.11.2022 12:16 2,3 C 2,2 C 0,0 C 91 % 1012,4 hPa 0,0 l/m 0 min 0 min 67 W/m 12,9 km/h (3 Bft) 91,30 %
19.11.2022 12:18 2,3 C 2,2 C 0,0 C 92 % 1012,4 hPa 0,0 l/m 0 min 0 min 69 W/m 9,7 km/h (2 Bft) 97,87 %
19.11.2022 12:20 2,3 C 2,2 C -0,6 C 92 % 1012,4 hPa 0,0 l/m 0 min 0 min 71 W/m 16,1 km/h (3 Bft) 97,87 %
19.11.2022 12:22 2,3 C 2,2 C 0,0 C 92 % 1012,4 hPa 0,0 l/m 0 min 0 min 75 W/m 9,7 km/h (2 Bft) 89,36 %
19.11.2022 12:24 2,3 C 2,2 C -0,6 C 92 % 1012,4 hPa 0,0 l/m 0 min 0 min 78 W/m 9,7 km/h (2 Bft) 100,00 %
19.11.2022 12:26 2,3 C 2,2 C 0,0 C 92 % 1012,4 hPa 0,0 l/m 0 min 0 min 79 W/m 9,7 km/h (2 Bft) 97,87 %
19.11.2022 12:28 2,3 C 2,2 C 0,0 C 92 % 1012,4 hPa 0,0 l/m 0 min 0 min 71 W/m 9,7 km/h (2 Bft) 95,65 %
19.11.2022 12:30 2,3 C 2,2 C 0,0 C 92 % 1012,4 hPa 0,0 l/m 0 min 0 min 59 W/m 12,9 km/h (3 Bft) 97,87 %
19.11.2022 12:32 2,3 C 2,2 C 0,0 C 92 % 1012,4 hPa 0,0 l/m 0 min 0 min 54 W/m 9,7 km/h (2 Bft) 95,74 %
19.11.2022 12:34 2,3 C 2,2 C 0,0 C 92 % 1012,4 hPa 0,0 l/m 0 min 0 min 53 W/m 12,9 km/h (3 Bft) 95,74 %
19.11.2022 12:36 2,3 C 2,2 C 0,0 C 92 % 1012,4 hPa 0,0 l/m 0 min 0 min 58 W/m 12,9 km/h (3 Bft) 100,00 %
19.11.2022 12:38 2,3 C 2,2 C 0,0 C 92 % 1012,4 hPa 0,0 l/m 0 min 0 min 66 W/m 6,4 km/h (2 Bft) 89,36 %
19.11.2022 12:40 2,3 C 2,2 C 0,0 C 92 % 1012,3 hPa 0,0 l/m 0 min 0 min 76 W/m 9,7 km/h (2 Bft) 95,65 %
19.11.2022 12:42 2,3 C 2,2 C 0,0 C 92 % 1012,4 hPa 0,0 l/m 0 min 0 min 82 W/m 12,9 km/h (3 Bft) 91,49 %
19.11.2022 12:44 2,3 C 2,2 C 0,0 C 92 % 1012,4 hPa 0,0 l/m 0 min 0 min 93 W/m 19,3 km/h (3 Bft) 97,87 %
19.11.2022 12:46 2,3 C 2,2 C 0,0 C 92 % 1012,4 hPa 0,0 l/m 0 min 0 min 95 W/m 16,1 km/h (3 Bft) 100,00 %
19.11.2022 12:48 2,3 C 2,2 C 0,0 C 92 % 1012,4 hPa 0,0 l/m 0 min 0 min 92 W/m 9,7 km/h (2 Bft) 97,87 %
19.11.2022 12:50 2,3 C 2,2 C 0,0 C 92 % 1012,3 hPa 0,0 l/m 0 min 0 min 94 W/m 16,1 km/h (3 Bft) 95,74 %
19.11.2022 12:52 2,3 C 2,2 C 0,0 C 92 % 1012,3 hPa 0,0 l/m 0 min 0 min 93 W/m 16,1 km/h (3 Bft) 100,00 %
19.11.2022 12:54 2,3 C 2,8 C 0,0 C 92 % 1012,3 hPa 0,0 l/m 0 min 0 min 89 W/m 16,1 km/h (3 Bft) 97,87 %
19.11.2022 12:56 2,3 C 2,2 C 0,0 C 92 % 1012,4 hPa 0,0 l/m 0 min 0 min 82 W/m 16,1 km/h (3 Bft) 100,00 %
19.11.2022 12:58 2,4 C 2,8 C 0,0 C 92 % 1012,4 hPa 0,0 l/m 0 min 0 min 75 W/m 12,9 km/h (3 Bft) 100,00 %
19.11.2022 13:00 2,4 C 2,8 C 0,0 C 92 % 1012,4 hPa 0,0 l/m 0 min 0 min 71 W/m 9,7 km/h (2 Bft) 100,00 %
19.11.2022 13:02 2,4 C 2,8 C 0,0 C 92 % 1012,4 hPa 0,0 l/m 0 min 0 min 68 W/m 6,4 km/h (2 Bft) 97,87 %
19.11.2022 13:04 2,4 C 2,8 C 0,0 C 92 % 1012,4 hPa 0,0 l/m 0 min 0 min 62 W/m 12,9 km/h (3 Bft) 100,00 %
19.11.2022 13:06 2,4 C 2,8 C 0,0 C 92 % 1012,5 hPa 0,0 l/m 0 min 0 min 58 W/m 16,1 km/h (3 Bft) 76,60 %
19.11.2022 13:08 2,4 C 2,2 C 0,0 C 92 % 1012,5 hPa 0,0 l/m 0 min 0 min 58 W/m 9,7 km/h (2 Bft) 66,67 %
19.11.2022 13:10 2,4 C 2,2 C 0,0 C 92 % 1012,5 hPa 0,0 l/m 0 min 0 min 62 W/m 9,7 km/h (2 Bft) 100,00 %
19.11.2022 13:12 2,4 C 2,8 C 0,0 C 92 % 1012,5 hPa 0,0 l/m 0 min 0 min 67 W/m 12,9 km/h (3 Bft) 93,62 %
19.11.2022 13:14 2,4 C 2,8 C 0,0 C 92 % 1012,5 hPa 0,0 l/m 0 min 0 min 78 W/m 9,7 km/h (2 Bft) 93,62 %
19.11.2022 13:16 2,4 C 2,8 C 0,0 C 92 % 1012,4 hPa 0,0 l/m 0 min 0 min 85 W/m 9,7 km/h (2 Bft) 95,65 %
19.11.2022 13:18 2,4 C 2,8 C 0,0 C 92 % 1012,4 hPa 0,0 l/m 0 min 0 min 90 W/m 9,7 km/h (2 Bft) 97,87 %
19.11.2022 13:20 2,4 C 2,8 C 0,0 C 92 % 1012,4 hPa 0,0 l/m 0 min 0 min 91 W/m 9,7 km/h (2 Bft) 97,87 %
19.11.2022 13:22 2,4 C 2,8 C 0,0 C 92 % 1012,4 hPa 0,0 l/m 0 min 0 min 95 W/m 12,9 km/h (3 Bft) 95,74 %
19.11.2022 13:24 2,4 C 2,8 C 0,0 C 92 % 1012,3 hPa 0,0 l/m 0 min 0 min 97 W/m 6,4 km/h (2 Bft) 95,74 %
19.11.2022 13:26 2,4 C 2,8 C 0,0 C 92 % 1012,3 hPa 0,0 l/m 0 min 0 min 94 W/m 12,9 km/h (3 Bft) 95,74 %
19.11.2022 13:28 2,5 C 2,8 C 0,0 C 92 % 1012,3 hPa 0,0 l/m 0 min 0 min 90 W/m 6,4 km/h (2 Bft) 97,83 %
19.11.2022 13:30 2,5 C 2,8 C 0,0 C 92 % 1012,3 hPa 0,0 l/m 0 min 0 min 88 W/m 12,9 km/h (3 Bft) 97,87 %
19.11.2022 13:32 2,6 C 2,8 C 0,0 C 92 % 1012,3 hPa 0,0 l/m 0 min 0 min 88 W/m 6,4 km/h (2 Bft) 96,23 %
19.11.2022 13:34 2,6 C 2,8 C 0,6 C 92 % 1012,3 hPa 0,0 l/m 0 min 0 min 84 W/m 6,4 km/h (2 Bft) 95,74 %
19.11.2022 13:36 2,6 C 2,8 C 0,6 C 92 % 1012,3 hPa 0,0 l/m 0 min 0 min 86 W/m 9,7 km/h (2 Bft) 95,74 %
19.11.2022 13:38 2,6 C 2,8 C 0,0 C 92 % 1012,3 hPa 0,0 l/m 0 min 0 min 96 W/m 9,7 km/h (2 Bft) 97,87 %
19.11.2022 13:40 2,6 C 2,8 C 0,6 C 92 % 1012,4 hPa 0,0 l/m 0 min 0 min 102 W/m 6,4 km/h (2 Bft) 97,87 %
19.11.2022 13:42 2,7 C 3,3 C 0,6 C 92 % 1012,3 hPa 0,0 l/m 0 min 0 min 106 W/m 9,7 km/h (2 Bft) 97,87 %
19.11.2022 13:44 2,7 C 3,3 C 0,6 C 92 % 1012,3 hPa 0,0 l/m 0 min 0 min 107 W/m 12,9 km/h (3 Bft) 95,74 %
19.11.2022 13:46 2,8 C 3,3 C 0,6 C 92 % 1012,3 hPa 0,0 l/m 0 min 0 min 104 W/m 9,7 km/h (2 Bft) 95,74 %
19.11.2022 13:48 2,8 C 3,3 C 0,6 C 92 % 1012,3 hPa 0,0 l/m 0 min 0 min 99 W/m 6,4 km/h (2 Bft) 95,74 %
19.11.2022 13:50 2,8 C 3,3 C 0,6 C 92 % 1012,3 hPa 0,0 l/m 0 min 0 min 97 W/m 9,7 km/h (2 Bft) 95,65 %
19.11.2022 13:52 2,9 C 3,3 C 0,6 C 92 % 1012,3 hPa 0,0 l/m 0 min 0 min 97 W/m 16,1 km/h (3 Bft) 95,74 %
19.11.2022 13:54 2,9 C 3,3 C 0,6 C 91 % 1012,3 hPa 0,0 l/m 0 min 0 min 96 W/m 9,7 km/h (2 Bft) 93,62 %
19.11.2022 13:56 2,9 C 3,3 C 0,6 C 91 % 1012,4 hPa 0,0 l/m 0 min 0 min 89 W/m 9,7 km/h (2 Bft) 95,74 %
19.11.2022 13:58 2,9 C 3,3 C 0,6 C 91 % 1012,4 hPa 0,0 l/m 0 min 0 min 83 W/m 9,7 km/h (2 Bft) 93,62 %
19.11.2022 14:00 3,0 C 3,3 C 0,6 C 91 % 1012,4 hPa 0,0 l/m 0 min 0 min 74 W/m 12,9 km/h (3 Bft) 93,62 %
19.11.2022 14:02 3,0 C 3,3 C 0,6 C 91 % 1012,4 hPa 0,0 l/m 0 min 0 min 70 W/m 9,7 km/h (2 Bft) 89,13 %
19.11.2022 14:04 2,9 C 3,3 C 0,6 C 91 % 1012,3 hPa 0,0 l/m 0 min 0 min 70 W/m 16,1 km/h (3 Bft) 91,49 %
19.11.2022 14:06 2,9 C 3,3 C 0,6 C 91 % 1012,3 hPa 0,0 l/m 0 min 0 min 69 W/m 6,4 km/h (2 Bft) 97,14 %
19.11.2022 14:08 3,0 C 3,3 C 0,6 C 90 % 1012,4 hPa 0,0 l/m 0 min 0 min 67 W/m 6,4 km/h (2 Bft) 94,92 %
19.11.2022 14:10 3,1 C 3,3 C 0,6 C 90 % 1012,4 hPa 0,0 l/m 0 min 0 min 63 W/m 6,4 km/h (2 Bft) 93,62 %
19.11.2022 14:12 3,1 C 3,3 C 0,6 C 90 % 1012,4 hPa 0,0 l/m 0 min 0 min 59 W/m 9,7 km/h (2 Bft) 93,62 %
19.11.2022 14:14 3,1 C 3,3 C 0,6 C 90 % 1012,5 hPa 0,0 l/m 0 min 0 min 57 W/m 16,1 km/h (3 Bft) 95,65 %
19.11.2022 14:16 3,1 C 3,3 C 0,6 C 90 % 1012,5 hPa 0,0 l/m 0 min 0 min 54 W/m 9,7 km/h (2 Bft) 92,59 %
19.11.2022 14:18 3,1 C 3,3 C 0,6 C 90 % 1012,6 hPa 0,0 l/m 0 min 0 min 54 W/m 9,7 km/h (2 Bft) 93,10 %
19.11.2022 14:20 3,1 C 3,3 C 0,6 C 90 % 1012,6 hPa 0,0 l/m 0 min 0 min 56 W/m 9,7 km/h (2 Bft) 93,62 %
19.11.2022 14:22 3,1 C 3,3 C 0,6 C 90 % 1012,6 hPa 0,0 l/m 0 min 0 min 57 W/m 9,7 km/h (2 Bft) 91,49 %
19.11.2022 14:24 3,1 C 3,3 C 0,6 C 89 % 1012,5 hPa 0,0 l/m 0 min 0 min 58 W/m 9,7 km/h (2 Bft) 95,74 %
19.11.2022 14:26 3,0 C 2,8 C 0,6 C 89 % 1012,5 hPa 0,0 l/m 0 min 0 min 56 W/m 9,7 km/h (2 Bft) 96,30 %
19.11.2022 14:28 3,0 C 2,8 C 0,6 C 89 % 1012,6 hPa 0,0 l/m 0 min 0 min 56 W/m 12,9 km/h (3 Bft) 95,65 %
19.11.2022 14:30 3,0 C 2,8 C 0,6 C 89 % 1012,6 hPa 0,0 l/m 0 min 0 min 56 W/m 16,1 km/h (3 Bft) 97,87 %
19.11.2022 14:32 3,0 C 2,8 C 0,6 C 88 % 1012,6 hPa 0,0 l/m 0 min 0 min 58 W/m 9,7 km/h (2 Bft) 100,00 %
19.11.2022 14:34 3,0 C 2,8 C 0,6 C 88 % 1012,6 hPa 0,0 l/m 0 min 0 min 59 W/m 6,4 km/h (2 Bft) 100,00 %
19.11.2022 14:36 3,0 C 2,8 C 0,6 C 88 % 1012,6 hPa 0,0 l/m 0 min 0 min 62 W/m 19,3 km/h (3 Bft) 100,00 %
19.11.2022 14:38 3,0 C 2,8 C 0,6 C 88 % 1012,7 hPa 0,0 l/m 0 min 0 min 60 W/m 12,9 km/h (3 Bft) 97,83 %
19.11.2022 14:40 3,0 C 3,3 C 0,6 C 88 % 1012,7 hPa 0,0 l/m 0 min 0 min 55 W/m 12,9 km/h (3 Bft) 100,00 %
19.11.2022 14:42 3,0 C 3,3 C 0,6 C 88 % 1012,7 hPa 0,0 l/m 0 min 0 min 53 W/m 9,7 km/h (2 Bft) 100,00 %
19.11.2022 14:44 3,1 C 3,3 C 0,6 C 88 % 1012,7 hPa 0,0 l/m 0 min 0 min 49 W/m 9,7 km/h (2 Bft) 97,87 %
19.11.2022 14:46 3,1 C 3,3 C 0,6 C 88 % 1012,7 hPa 0,0 l/m 0 min 0 min 47 W/m 9,7 km/h (2 Bft) 100,00 %
19.11.2022 14:48 3,1 C 3,3 C 0,6 C 88 % 1012,6 hPa 0,0 l/m 0 min 0 min 51 W/m 9,7 km/h (2 Bft) 100,00 %
19.11.2022 14:50 3,1 C 3,3 C 0,6 C 88 % 1012,6 hPa 0,0 l/m 0 min 0 min 53 W/m 9,7 km/h (2 Bft) 97,83 %
19.11.2022 14:52 3,1 C 3,3 C 0,6 C 88 % 1012,6 hPa 0,0 l/m 0 min 0 min 52 W/m 9,7 km/h (2 Bft) 100,00 %
19.11.2022 14:54 3,1 C 3,3 C 0,6 C 87 % 1012,6 hPa 0,0 l/m 0 min 0 min 47 W/m 9,7 km/h (2 Bft) 100,00 %
19.11.2022 14:56 3,1 C 3,3 C 0,6 C 87 % 1012,6 hPa 0,0 l/m 0 min 0 min 43 W/m 12,9 km/h (3 Bft) 97,92 %
19.11.2022 14:58 3,1 C 3,3 C 0,6 C 87 % 1012,6 hPa 0,0 l/m 0 min 0 min 39 W/m 6,4 km/h (2 Bft) 100,00 %
19.11.2022 15:00 3,2 C 3,3 C 0,6 C 87 % 1012,6 hPa 0,0 l/m 0 min 0 min 37 W/m 9,7 km/h (2 Bft) 97,87 %
19.11.2022 15:02 3,2 C 3,3 C 0,6 C 87 % 1012,6 hPa 0,0 l/m 0 min 0 min 37 W/m 12,9 km/h (3 Bft) 95,83 %
19.11.2022 15:04 3,2 C 2,8 C 0,6 C 87 % 1012,6 hPa 0,0 l/m 0 min 0 min 37 W/m 12,9 km/h (3 Bft) 54,55 %
19.11.2022 15:06 3,1 C 2,8 C 0,0 C 87 % 1012,6 hPa 0,0 l/m 0 min 0 min 36 W/m 12,9 km/h (3 Bft) 100,00 %
19.11.2022 15:08 3,1 C 3,3 C 0,0 C 87 % 1012,6 hPa 0,0 l/m 0 min 0 min 32 W/m 6,4 km/h (2 Bft) 100,00 %
19.11.2022 15:10 3,1 C 3,3 C 0,6 C 87 % 1012,6 hPa 0,0 l/m 0 min 0 min 32 W/m 6,4 km/h (2 Bft) 100,00 %
19.11.2022 15:12 3,1 C 2,8 C 0,0 C 87 % 1012,6 hPa 0,0 l/m 0 min 0 min 30 W/m 9,7 km/h (2 Bft) 97,87 %
19.11.2022 15:14 3,1 C 2,8 C 0,6 C 87 % 1012,5 hPa 0,0 l/m 0 min 0 min 28 W/m 9,7 km/h (2 Bft) 100,00 %
19.11.2022 15:16 3,1 C 2,8 C 0,6 C 87 % 1012,6 hPa 0,0 l/m 0 min 0 min 31 W/m 9,7 km/h (2 Bft) 100,00 %
19.11.2022 15:18 3,1 C 2,8 C 0,0 C 87 % 1012,6 hPa 0,0 l/m 0 min 0 min 32 W/m 12,9 km/h (3 Bft) 100,00 %
19.11.2022 15:20 3,1 C 2,8 C 0,0 C 87 % 1012,6 hPa 0,0 l/m 0 min 0 min 32 W/m 9,7 km/h (2 Bft) 97,87 %
19.11.2022 15:22 3,1 C 2,8 C 0,0 C 87 % 1012,6 hPa 0,0 l/m 0 min 0 min 30 W/m 9,7 km/h (2 Bft) 100,00 %
19.11.2022 15:24 3,1 C 2,8 C 0,0 C 87 % 1012,7 hPa 0,0 l/m 0 min 0 min 28 W/m 6,4 km/h (2 Bft) 100,00 %
19.11.2022 15:26 3,1 C 2,8 C 0,6 C 87 % 1012,7 hPa 0,0 l/m 0 min 0 min 26 W/m 6,4 km/h (2 Bft) 97,83 %
19.11.2022 15:28 3,1 C 2,8 C 0,6 C 87 % 1012,7 hPa 0,0 l/m 0 min 0 min 27 W/m 9,7 km/h (2 Bft) 100,00 %
19.11.2022 15:30 3,1 C 2,8 C 0,6 C 87 % 1012,7 hPa 0,0 l/m 0 min 0 min 28 W/m 9,7 km/h (2 Bft) 100,00 %
19.11.2022 15:32 3,1 C 2,8 C 0,6 C 87 % 1012,7 hPa 0,0 l/m 0 min 0 min 25 W/m 6,4 km/h (2 Bft) 100,00 %
19.11.2022 15:34 3,1 C 2,8 C 0,6 C 87 % 1012,6 hPa 0,0 l/m 0 min 0 min 22 W/m 6,4 km/h (2 Bft) 100,00 %
19.11.2022 15:36 3,1 C 2,8 C 0,0 C 87 % 1012,6 hPa 0,0 l/m 0 min 0 min 21 W/m 6,4 km/h (2 Bft) 100,00 %
19.11.2022 15:38 3,1 C 2,8 C 0,0 C 87 % 1012,7 hPa 0,0 l/m 0 min 0 min 19 W/m 9,7 km/h (2 Bft) 100,00 %
19.11.2022 15:40 3,1 C 2,8 C 0,6 C 87 % 1012,6 hPa 0,0 l/m 0 min 0 min 19 W/m 6,4 km/h (2 Bft) 97,87 %
19.11.2022 15:42 3,1 C 2,8 C 0,0 C 87 % 1012,7 hPa 0,0 l/m 0 min 0 min 19 W/m 6,4 km/h (2 Bft) 100,00 %
19.11.2022 15:44 3,1 C 2,8 C 0,0 C 87 % 1012,7 hPa 0,0 l/m 0 min 0 min 19 W/m 3,2 km/h (1 Bft) 100,00 %
19.11.2022 15:46 3,1 C 2,8 C 0,0 C 87 % 1012,7 hPa 0,0 l/m 0 min 0 min 18 W/m 6,4 km/h (2 Bft) 97,87 %
19.11.2022 15:48 3,1 C 2,8 C 0,0 C 87 % 1012,7 hPa 0,0 l/m 0 min 0 min 15 W/m 9,7 km/h (2 Bft) 100,00 %
19.11.2022 15:50 3,1 C 2,8 C 0,0 C 87 % 1012,7 hPa 0,0 l/m 0 min 0 min 14 W/m 9,7 km/h (2 Bft) 97,87 %
19.11.2022 15:52 3,1 C 2,8 C 0,0 C 87 % 1012,7 hPa 0,0 l/m 0 min 0 min 14 W/m 9,7 km/h (2 Bft) 97,83 %
19.11.2022 15:54 3,1 C 2,8 C 0,0 C 86 % 1012,7 hPa 0,0 l/m 0 min 0 min 12 W/m 9,7 km/h (2 Bft) 97,87 %
19.11.2022 15:56 3,1 C 2,8 C 0,0 C 86 % 1012,7 hPa 0,0 l/m 0 min 0 min 12 W/m 12,9 km/h (3 Bft) 95,74 %
19.11.2022 15:58 3,1 C 2,8 C 0,0 C 86 % 1012,7 hPa 0,0 l/m 0 min 0 min 11 W/m 9,7 km/h (2 Bft) 97,87 %
19.11.2022 16:00 3,1 C 2,8 C 0,0 C 86 % 1012,7 hPa 0,0 l/m 0 min 0 min 11 W/m 9,7 km/h (2 Bft) 95,74 %
19.11.2022 16:02 3,0 C 2,8 C 0,0 C 86 % 1012,7 hPa 0,0 l/m 0 min 0 min 11 W/m 12,9 km/h (3 Bft) 95,74 %
19.11.2022 16:04 3,0 C 2,8 C 0,0 C 86 % 1012,8 hPa 0,0 l/m 0 min 0 min 11 W/m 9,7 km/h (2 Bft) 97,87 %
19.11.2022 16:06 3,0 C 2,8 C 0,0 C 85 % 1012,8 hPa 0,0 l/m 0 min 0 min 11 W/m 6,4 km/h (2 Bft) 95,74 %
19.11.2022 16:08 3,0 C 2,8 C 0,0 C 86 % 1012,8 hPa 0,0 l/m 0 min 0 min 11 W/m 9,7 km/h (2 Bft) 97,87 %
19.11.2022 16:10 3,0 C 2,8 C 0,0 C 85 % 1012,8 hPa 0,0 l/m 0 min 0 min 11 W/m 12,9 km/h (3 Bft) 95,74 %
19.11.2022 16:12 2,9 C 2,8 C 0,0 C 85 % 1012,8 hPa 0,0 l/m 0 min 0 min 10 W/m 6,4 km/h (2 Bft) 97,87 %
19.11.2022 16:14 2,9 C 2,8 C 0,0 C 85 % 1012,9 hPa 0,0 l/m 0 min 0 min 9 W/m 6,4 km/h (2 Bft) 95,65 %
19.11.2022 16:16 2,9 C 2,8 C 0,0 C 85 % 1012,9 hPa 0,0 l/m 0 min 0 min 9 W/m 6,4 km/h (2 Bft) 95,74 %
19.11.2022 16:18 2,9 C 2,8 C 0,0 C 85 % 1012,9 hPa 0,0 l/m 0 min 0 min 8 W/m 9,7 km/h (2 Bft) 95,74 %
19.11.2022 16:20 2,9 C 2,8 C 0,0 C 85 % 1012,9 hPa 0,0 l/m 0 min 0 min 7 W/m 12,9 km/h (3 Bft) 93,62 %
19.11.2022 16:22 2,9 C 2,8 C 0,0 C 85 % 1012,9 hPa 0,0 l/m 0 min 0 min 7 W/m 6,4 km/h (2 Bft) 91,49 %
19.11.2022 16:24 2,9 C 2,8 C 0,0 C 85 % 1012,9 hPa 0,0 l/m 0 min 0 min 5 W/m 6,4 km/h (2 Bft) 95,74 %
19.11.2022 16:26 2,9 C 2,8 C 0,0 C 85 % 1012,9 hPa 0,0 l/m 0 min 0 min 5 W/m 6,4 km/h (2 Bft) 95,65 %
19.11.2022 16:28 2,9 C 2,8 C 0,0 C 85 % 1012,9 hPa 0,0 l/m 0 min 0 min 5 W/m 6,4 km/h (2 Bft) 93,62 %
19.11.2022 16:30 2,9 C 2,8 C 0,0 C 85 % 1012,9 hPa 0,0 l/m 0 min 0 min 1 W/m 6,4 km/h (2 Bft) 93,62 %
19.11.2022 16:32 2,9 C 2,8 C 0,0 C 85 % 1012,9 hPa 0,0 l/m 0 min 0 min 0 W/m 9,7 km/h (2 Bft) 94,00 %
19.11.2022 16:34 2,9 C 2,8 C 0,0 C 85 % 1013,0 hPa 0,0 l/m 0 min 0 min 0 W/m 9,7 km/h (2 Bft) 93,62 %
19.11.2022 16:36 2,9 C 2,8 C 0,0 C 85 % 1013,0 hPa 0,0 l/m 0 min 0 min 0 W/m 3,2 km/h (1 Bft) 95,74 %
19.11.2022 16:38 2,9 C 2,8 C 0,0 C 85 % 1013,0 hPa 0,0 l/m 0 min 0 min 0 W/m 3,2 km/h (1 Bft) 95,65 %
19.11.2022 16:40 2,9 C 2,8 C 0,0 C 85 % 1013,0 hPa 0,0 l/m 0 min 0 min 0 W/m 6,4 km/h (2 Bft) 95,74 %
19.11.2022 16:42 2,9 C 2,8 C 0,0 C 86 % 1013,0 hPa 0,0 l/m 0 min 0 min 0 W/m 3,2 km/h (1 Bft) 95,74 %
19.11.2022 16:44 2,9 C 2,8 C 0,0 C 85 % 1013,0 hPa 0,0 l/m 0 min 0 min 0 W/m 3,2 km/h (1 Bft) 95,74 %
19.11.2022 16:46 2,9 C 2,8 C 0,0 C 86 % 1013,0 hPa 0,0 l/m 0 min 0 min 0 W/m 6,4 km/h (2 Bft) 93,62 %
19.11.2022 16:48 2,9 C 2,2 C 0,0 C 86 % 1013,0 hPa 0,0 l/m 0 min 0 min 0 W/m 12,9 km/h (3 Bft) 91,49 %
19.11.2022 16:50 2,9 C 2,2 C 0,0 C 86 % 1012,9 hPa 0,0 l/m 0 min 0 min 0 W/m 6,4 km/h (2 Bft) 95,65 %
19.11.2022 16:52 2,9 C 2,2 C 0,0 C 85 % 1012,9 hPa 0,0 l/m 0 min 0 min 0 W/m 6,4 km/h (2 Bft) 95,74 %
19.11.2022 16:54 2,9 C 2,2 C 0,0 C 85 % 1013,0 hPa 0,0 l/m 0 min 0 min 0 W/m 6,4 km/h (2 Bft) 91,49 %
19.11.2022 16:56 2,9 C 2,2 C 0,0 C 85 % 1013,0 hPa 0,0 l/m 0 min 0 min 0 W/m 6,4 km/h (2 Bft) 97,87 %
19.11.2022 16:58 2,8 C 2,2 C 0,0 C 85 % 1013,0 hPa 0,0 l/m 0 min 0 min 0 W/m 9,7 km/h (2 Bft) 36,36 %
19.11.2022 17:00 2,8 C 2,2 C 0,0 C 85 % 1013,0 hPa 0,0 l/m 0 min 0 min 0 W/m 9,7 km/h (2 Bft) 95,12 %
19.11.2022 17:02 2,8 C 2,2 C 0,0 C 85 % 1013,0 hPa 0,0 l/m 0 min 0 min 0 W/m 6,4 km/h (2 Bft) 95,74 %
19.11.2022 17:04 2,8 C 2,2 C 0,0 C 85 % 1013,0 hPa 0,0 l/m 0 min 0 min 0 W/m 9,7 km/h (2 Bft) 96,15 %
19.11.2022 17:06 2,8 C 2,2 C 0,0 C 85 % 1013,1 hPa 0,0 l/m 0 min 0 min 0 W/m 6,4 km/h (2 Bft) 93,62 %
19.11.2022 17:08 2,8 C 2,2 C 0,0 C 85 % 1013,1 hPa 0,0 l/m 0 min 0 min 0 W/m 3,2 km/h (1 Bft) 97,87 %
19.11.2022 17:10 2,8 C 2,2 C 0,0 C 85 % 1013,2 hPa 0,0 l/m 0 min 0 min 0 W/m 6,4 km/h (2 Bft) 97,14 %
19.11.2022 17:12 2,8 C 2,2 C 0,0 C 85 % 1013,0 hPa 0,0 l/m 0 min 0 min 0 W/m 12,9 km/h (3 Bft) 96,55 %
19.11.2022 17:14 2,8 C 2,2 C -0,6 C 85 % 1013,1 hPa 0,0 l/m 0 min 0 min 0 W/m 6,4 km/h (2 Bft) 97,87 %
19.11.2022 17:16 2,8 C 2,2 C 0,0 C 85 % 1013,1 hPa 0,0 l/m 0 min 0 min 0 W/m 6,4 km/h (2 Bft) 100,00 %
19.11.2022 17:18 2,8 C 2,2 C 0,0 C 85 % 1013,0 hPa 0,0 l/m 0 min 0 min 0 W/m 12,9 km/h (3 Bft) 97,87 %
19.11.2022 17:20 2,8 C 2,2 C -0,6 C 85 % 1013,1 hPa 0,0 l/m 0 min 0 min 0 W/m 6,4 km/h (2 Bft) 97,14 %
19.11.2022 17:22 2,8 C 2,2 C -0,6 C 85 % 1013,1 hPa 0,0 l/m 0 min 0 min 0 W/m 6,4 km/h (2 Bft) 97,87 %
19.11.2022 17:24 2,8 C 2,2 C -0,6 C 85 % 1013,1 hPa 0,0 l/m 0 min 0 min 0 W/m 6,4 km/h (2 Bft) 97,87 %
19.11.2022 17:26 2,7 C 2,2 C -0,6 C 85 % 1013,1 hPa 0,0 l/m 0 min 0 min 0 W/m 6,4 km/h (2 Bft) 97,87 %
19.11.2022 17:28 2,7 C 2,2 C -0,6 C 85 % 1013,1 hPa 0,0 l/m 0 min 0 min 0 W/m 6,4 km/h (2 Bft) 97,83 %
19.11.2022 17:30 2,8 C 2,2 C -0,6 C 85 % 1013,2 hPa 0,0 l/m 0 min 0 min 0 W/m 12,9 km/h (3 Bft) 97,87 %
19.11.2022 17:32 2,8 C 2,2 C -0,6 C 85 % 1013,1 hPa 0,0 l/m 0 min 0 min 0 W/m 9,7 km/h (2 Bft) 100,00 %
19.11.2022 17:34 2,7 C 2,2 C -0,6 C 85 % 1013,2 hPa 0,0 l/m 0 min 0 min 0 W/m 6,4 km/h (2 Bft) 97,87 %
19.11.2022 17:36 2,7 C 2,2 C -0,6 C 85 % 1013,1 hPa 0,0 l/m 0 min 0 min 0 W/m 3,2 km/h (1 Bft) 97,87 %
19.11.2022 17:38 2,7 C 2,2 C -0,6 C 85 % 1013,2 hPa 0,0 l/m 0 min 0 min 0 W/m 6,4 km/h (2 Bft) 93,62 %
19.11.2022 17:40 2,7 C 2,2 C -0,6 C 85 % 1013,2 hPa 0,0 l/m 0 min 0 min 0 W/m 6,4 km/h (2 Bft) 97,83 %
19.11.2022 17:42 2,7 C 2,2 C -0,6 C 85 % 1013,1 hPa 0,0 l/m 0 min 0 min 0 W/m 9,7 km/h (2 Bft) 95,74 %
19.11.2022 17:44 2,7 C 2,2 C -0,6 C 85 % 1013,1 hPa 0,0 l/m 0 min 0 min 0 W/m 9,7 km/h (2 Bft) 97,87 %
19.11.2022 17:46 2,6 C 2,2 C -0,6 C 84 % 1013,1 hPa 0,0 l/m 0 min 0 min 0 W/m 16,1 km/h (3 Bft) 95,74 %
19.11.2022 17:48 2,6 C 2,2 C -0,6 C 84 % 1013,2 hPa 0,0 l/m 0 min 0 min 0 W/m 12,9 km/h (3 Bft) 95,74 %
19.11.2022 17:50 2,6 C 2,2 C -0,6 C 83 % 1013,2 hPa 0,0 l/m 0 min 0 min 0 W/m 6,4 km/h (2 Bft) 97,83 %
19.11.2022 17:52 2,6 C 2,2 C -0,6 C 83 % 1013,2 hPa 0,0 l/m 0 min 0 min 0 W/m 9,7 km/h (2 Bft) 97,87 %
19.11.2022 17:54 2,6 C 2,2 C -0,6 C 83 % 1013,2 hPa 0,0 l/m 0 min 0 min 0 W/m 6,4 km/h (2 Bft) 97,87 %
19.11.2022 17:56 2,6 C 2,2 C -0,6 C 83 % 1013,2 hPa 0,0 l/m 0 min 0 min 0 W/m 6,4 km/h (2 Bft) 95,74 %
19.11.2022 17:58 2,6 C 2,2 C -0,6 C 83 % 1013,2 hPa 0,0 l/m 0 min 0 min 0 W/m 6,4 km/h (2 Bft) 95,74 %
19.11.2022 18:00 2,6 C 2,2 C -0,6 C 83 % 1013,2 hPa 0,0 l/m 0 min 0 min 0 W/m 9,7 km/h (2 Bft) 97,87 %
19.11.2022 18:02 2,5 C 2,2 C -0,6 C 83 % 1013,2 hPa 0,0 l/m 0 min 0 min 0 W/m 6,4 km/h (2 Bft) 95,74 %
19.11.2022 18:04 2,5 C 2,2 C -0,6 C 83 % 1013,2 hPa 0,0 l/m 0 min 0 min 0 W/m 3,2 km/h (1 Bft) 97,96 %
19.11.2022 18:08 2,5 C 2,2 C -0,6 C 83 % 1013,3 hPa 0,0 l/m 0 min 0 min 0 W/m 12,9 km/h (3 Bft) 97,87 %
19.11.2022 18:10 2,5 C 2,2 C -0,6 C 83 % 1013,2 hPa 0,0 l/m 0 min 0 min 0 W/m 6,4 km/h (2 Bft) 97,87 %
19.11.2022 18:12 2,4 C 2,2 C -0,6 C 83 % 1013,2 hPa 0,0 l/m 0 min 0 min 0 W/m 6,4 km/h (2 Bft) 95,74 %
19.11.2022 18:14 2,4 C 2,2 C -0,6 C 83 % 1013,3 hPa 0,0 l/m 0 min 0 min 0 W/m 9,7 km/h (2 Bft) 100,00 %
19.11.2022 18:16 2,4 C 2,2 C -0,6 C 83 % 1013,2 hPa 0,0 l/m 0 min 0 min 0 W/m 6,4 km/h (2 Bft) 97,87 %
19.11.2022 18:18 2,4 C 2,2 C -0,6 C 83 % 1013,3 hPa 0,0 l/m 0 min 0 min 0 W/m 12,9 km/h (3 Bft) 100,00 %
19.11.2022 18:20 2,4 C 2,2 C -0,6 C 82 % 1013,3 hPa 0,0 l/m 0 min 0 min 0 W/m 3,2 km/h (1 Bft) 97,87 %
19.11.2022 18:22 2,4 C 2,2 C -0,6 C 82 % 1013,3 hPa 0,0 l/m 0 min 0 min 0 W/m 9,7 km/h (2 Bft) 100,00 %
19.11.2022 18:24 2,3 C 2,2 C -0,6 C 82 % 1013,3 hPa 0,0 l/m 0 min 0 min 0 W/m 6,4 km/h (2 Bft) 100,00 %
19.11.2022 18:26 2,3 C 2,2 C -0,6 C 83 % 1013,3 hPa 0,0 l/m 0 min 0 min 0 W/m 6,4 km/h (2 Bft) 100,00 %
19.11.2022 18:28 2,3 C 2,2 C -0,6 C 83 % 1013,3 hPa 0,0 l/m 0 min 0 min 0 W/m 6,4 km/h (2 Bft) 97,87 %
19.11.2022 18:30 2,3 C 2,2 C -0,6 C 83 % 1013,3 hPa 0,0 l/m 0 min 0 min 0 W/m 12,9 km/h (3 Bft) 100,00 %
19.11.2022 18:32 2,3 C 2,2 C -0,6 C 83 % 1013,4 hPa 0,0 l/m 0 min 0 min 0 W/m 3,2 km/h (1 Bft) 97,87 %
19.11.2022 18:34 2,3 C 1,7 C -0,6 C 82 % 1013,4 hPa 0,0 l/m 0 min 0 min 0 W/m 6,4 km/h (2 Bft) 95,74 %
19.11.2022 18:36 2,3 C 1,7 C -0,6 C 82 % 1013,4 hPa 0,0 l/m 0 min 0 min 0 W/m 6,4 km/h (2 Bft) 97,87 %
19.11.2022 18:38 2,3 C 1,7 C -0,6 C 83 % 1013,4 hPa 0,0 l/m 0 min 0 min 0 W/m 6,4 km/h (2 Bft) 95,65 %
19.11.2022 18:40 2,3 C 1,7 C -1,1 C 83 % 1013,4 hPa 0,0 l/m 0 min 0 min 0 W/m 9,7 km/h (2 Bft) 95,74 %
19.11.2022 18:42 2,3 C 2,2 C -0,6 C 83 % 1013,4 hPa 0,0 l/m 0 min 0 min 0 W/m 6,4 km/h (2 Bft) 95,74 %
19.11.2022 18:44 2,3 C 2,2 C -0,6 C 83 % 1013,4 hPa 0,0 l/m 0 min 0 min 0 W/m 6,4 km/h (2 Bft) 97,87 %
19.11.2022 18:46 2,3 C 2,2 C -0,6 C 82 % 1013,3 hPa 0,0 l/m 0 min 0 min 0 W/m 6,4 km/h (2 Bft) 97,87 %
19.11.2022 18:48 2,3 C 2,2 C -1,1 C 82 % 1013,3 hPa 0,0 l/m 0 min 0 min 0 W/m 9,7 km/h (2 Bft) 95,74 %
19.11.2022 18:50 2,3 C 2,2 C -0,6 C 82 % 1013,3 hPa 0,0 l/m 0 min 0 min 0 W/m 6,4 km/h (2 Bft) 97,83 %
19.11.2022 18:52 2,3 C 2,2 C -0,6 C 83 % 1013,3 hPa 0,0 l/m 0 min 0 min 0 W/m 6,4 km/h (2 Bft) 95,74 %
19.11.2022 18:54 2,3 C 2,2 C -0,6 C 83 % 1013,3 hPa 0,0 l/m 0 min 0 min 0 W/m 9,7 km/h (2 Bft) 95,74 %
19.11.2022 18:56 2,3 C 2,2 C -1,1 C 83 % 1013,3 hPa 0,0 l/m 0 min 0 min 0 W/m 6,4 km/h (2 Bft) 95,74 %
19.11.2022 18:58 2,3 C 2,2 C -0,6 C 83 % 1013,3 hPa 0,0 l/m 0 min 0 min 0 W/m 3,2 km/h (1 Bft) 97,87 %
19.11.2022 19:00 2,3 C 2,2 C -1,1 C 83 % 1013,3 hPa 0,0 l/m 0 min 0 min 0 W/m 6,4 km/h (2 Bft) 97,87 %
19.11.2022 19:02 2,3 C 2,2 C -0,6 C 83 % 1013,3 hPa 0,0 l/m 0 min 0 min 0 W/m 3,2 km/h (1 Bft) 97,83 %
19.11.2022 19:04 2,3 C 2,2 C -0,6 C 83 % 1013,3 hPa 0,0 l/m 0 min 0 min 0 W/m 6,4 km/h (2 Bft) 96,15 %
19.11.2022 19:06 2,3 C 2,2 C -0,6 C 83 % 1013,4 hPa 0,0 l/m 0 min 0 min 0 W/m 3,2 km/h (1 Bft) 97,87 %
19.11.2022 19:08 2,3 C 2,2 C -0,6 C 83 % 1013,4 hPa 0,0 l/m 0 min 0 min 0 W/m 6,4 km/h (2 Bft) 95,83 %
19.11.2022 19:10 2,3 C 2,2 C -1,1 C 83 % 1013,3 hPa 0,0 l/m 0 min 0 min 0 W/m 6,4 km/h (2 Bft) 100,00 %
19.11.2022 19:12 2,3 C 2,2 C -1,1 C 83 % 1013,3 hPa 0,0 l/m 0 min 0 min 0 W/m 6,4 km/h (2 Bft) 97,83 %
19.11.2022 19:14 2,3 C 2,2 C -1,1 C 82 % 1013,3 hPa 0,0 l/m 0 min 0 min 0 W/m 9,7 km/h (2 Bft) 100,00 %
19.11.2022 19:16 2,3 C 2,2 C -1,1 C 82 % 1013,3 hPa 0,0 l/m 0 min 0 min 0 W/m 12,9 km/h (3 Bft) 97,87 %
19.11.2022 19:18 2,3 C 2,2 C -1,1 C 82 % 1013,3 hPa 0,0 l/m 0 min 0 min 0 W/m 6,4 km/h (2 Bft) 100,00 %
19.11.2022 19:20 2,3 C 2,2 C -1,1 C 82 % 1013,4 hPa 0,0 l/m 0 min 0 min 0 W/m 3,2 km/h (1 Bft) 100,00 %
19.11.2022 19:22 2,3 C 2,2 C -1,1 C 82 % 1013,3 hPa 0,0 l/m 0 min 0 min 0 W/m 6,4 km/h (2 Bft) 97,87 %
19.11.2022 19:24 2,3 C 2,2 C -1,1 C 83 % 1013,3 hPa 0,0 l/m 0 min 0 min 0 W/m 3,2 km/h (1 Bft) 95,65 %
19.11.2022 19:26 2,3 C 2,2 C -1,1 C 83 % 1013,4 hPa 0,0 l/m 0 min 0 min 0 W/m 3,2 km/h (1 Bft) 97,87 %
19.11.2022 19:28 2,3 C 2,2 C -0,6 C 83 % 1013,4 hPa 0,0 l/m 0 min 0 min 0 W/m 3,2 km/h (1 Bft) 97,87 %
19.11.2022 19:30 2,3 C 2,2 C -1,1 C 83 % 1013,3 hPa 0,0 l/m 0 min 0 min 0 W/m 6,4 km/h (2 Bft) 97,87 %
19.11.2022 19:32 2,3 C 2,2 C -1,1 C 83 % 1013,3 hPa 0,0 l/m 0 min 0 min 0 W/m 6,4 km/h (2 Bft) 97,87 %
19.11.2022 19:34 2,3 C 2,2 C -1,1 C 83 % 1013,3 hPa 0,0 l/m 0 min 0 min 0 W/m 6,4 km/h (2 Bft) 97,87 %
19.11.2022 19:36 2,3 C 2,2 C -1,1 C 83 % 1013,3 hPa 0,0 l/m 0 min 0 min 0 W/m 6,4 km/h (2 Bft) 95,65 %
19.11.2022 19:38 2,3 C 2,2 C -1,1 C 83 % 1013,3 hPa 0,0 l/m 0 min 0 min 0 W/m 6,4 km/h (2 Bft) 97,87 %
19.11.2022 19:40 2,3 C 2,2 C -1,1 C 83 % 1013,3 hPa 0,0 l/m 0 min 0 min 0 W/m 6,4 km/h (2 Bft) 95,74 %
19.11.2022 19:42 2,3 C 2,2 C -1,1 C 83 % 1013,3 hPa 0,0 l/m 0 min 0 min 0 W/m 6,4 km/h (2 Bft) 93,62 %
19.11.2022 19:44 2,3 C 2,2 C -1,1 C 83 % 1013,4 hPa 0,0 l/m 0 min 0 min 0 W/m 6,4 km/h (2 Bft) 95,74 %
19.11.2022 19:46 2,3 C 2,2 C -1,1 C 83 % 1013,3 hPa 0,0 l/m 0 min 0 min 0 W/m 6,4 km/h (2 Bft) 95,74 %
19.11.2022 19:48 2,3 C 2,2 C -1,1 C 83 % 1013,3 hPa 0,0 l/m 0 min 0 min 0 W/m 6,4 km/h (2 Bft) 95,65 %
19.11.2022 19:50 2,3 C 2,2 C -1,1 C 83 % 1013,3 hPa 0,0 l/m 0 min 0 min 0 W/m 3,2 km/h (1 Bft) 95,74 %
19.11.2022 19:52 2,3 C 2,2 C -1,1 C 83 % 1013,3 hPa 0,0 l/m 0 min 0 min 0 W/m 3,2 km/h (1 Bft) 97,87 %
19.11.2022 19:54 2,3 C 2,2 C -1,1 C 83 % 1013,3 hPa 0,0 l/m 0 min 0 min 0 W/m 6,4 km/h (2 Bft) 97,87 %
19.11.2022 19:56 2,3 C 2,2 C -1,1 C 83 % 1013,3 hPa 0,0 l/m 0 min 0 min 0 W/m 6,4 km/h (2 Bft) 97,87 %
19.11.2022 19:58 2,3 C 2,2 C -1,1 C 83 % 1013,2 hPa 0,0 l/m 0 min 0 min 0 W/m 6,4 km/h (2 Bft) 93,48 %
19.11.2022 20:00 2,3 C 2,2 C -1,1 C 83 % 1013,2 hPa 0,0 l/m 0 min 0 min 0 W/m 3,2 km/h (1 Bft) 95,74 %
19.11.2022 20:02 2,3 C 1,7 C -1,1 C 83 % 1013,2 hPa 0,0 l/m 0 min 0 min 0 W/m 6,4 km/h (2 Bft) 95,74 %
19.11.2022 20:04 2,3 C 2,2 C -1,1 C 83 % 1013,2 hPa 0,0 l/m 0 min 0 min 0 W/m 3,2 km/h (1 Bft) 97,78 %
19.11.2022 20:06 2,3 C 2,2 C -1,1 C 83 % 1013,2 hPa 0,0 l/m 0 min 0 min 0 W/m 3,2 km/h (1 Bft) 95,74 %
19.11.2022 20:08 2,3 C 2,2 C -1,1 C 83 % 1013,3 hPa 0,0 l/m 0 min 0 min 0 W/m 3,2 km/h (1 Bft) 97,87 %
19.11.2022 20:10 2,3 C 2,2 C -1,1 C 83 % 1013,2 hPa 0,0 l/m 0 min 0 min 0 W/m 3,2 km/h (1 Bft) 97,87 %
19.11.2022 20:12 2,3 C 2,2 C -1,1 C 83 % 1013,2 hPa 0,0 l/m 0 min 0 min 0 W/m 3,2 km/h (1 Bft) 95,65 %
19.11.2022 20:14 2,3 C 2,2 C -1,1 C 83 % 1013,2 hPa 0,0 l/m 0 min 0 min 0 W/m 3,2 km/h (1 Bft) 97,87 %
19.11.2022 20:16 2,3 C 1,7 C -1,1 C 83 % 1013,2 hPa 0,0 l/m 0 min 0 min 0 W/m 9,7 km/h (2 Bft) 97,87 %
19.11.2022 20:18 2,3 C 1,7 C -1,1 C 83 % 1013,1 hPa 0,0 l/m 0 min 0 min 0 W/m 6,4 km/h (2 Bft) 93,62 %
19.11.2022 20:20 2,2 C 2,2 C -1,1 C 83 % 1013,1 hPa 0,0 l/m 0 min 0 min 0 W/m 3,2 km/h (1 Bft) 97,87 %
19.11.2022 20:22 2,2 C 2,2 C -1,1 C 83 % 1013,2 hPa 0,0 l/m 0 min 0 min 0 W/m 6,4 km/h (2 Bft) 97,87 %
19.11.2022 20:24 2,3 C 2,2 C -1,1 C 83 % 1013,2 hPa 0,0 l/m 0 min 0 min 0 W/m 6,4 km/h (2 Bft) 97,83 %
19.11.2022 20:26 2,3 C 2,2 C -1,1 C 84 % 1013,2 hPa 0,0 l/m 0 min 0 min 0 W/m 3,2 km/h (1 Bft) 97,87 %
19.11.2022 20:28 2,3 C 1,7 C -1,1 C 84 % 1013,2 hPa 0,0 l/m 0 min 0 min 0 W/m 6,4 km/h (2 Bft) 97,87 %
19.11.2022 20:30 2,2 C 1,7 C -1,1 C 84 % 1013,2 hPa 0,0 l/m 0 min 0 min 0 W/m 6,4 km/h (2 Bft) 93,62 %
19.11.2022 20:32 2,2 C 1,7 C -1,1 C 84 % 1013,2 hPa 0,0 l/m 0 min 0 min 0 W/m 6,4 km/h (2 Bft) 97,87 %
19.11.2022 20:34 2,2 C 1,7 C -1,1 C 84 % 1013,2 hPa 0,0 l/m 0 min 0 min 0 W/m 6,4 km/h (2 Bft) 95,74 %
19.11.2022 20:36 2,2 C 1,7 C -1,1 C 84 % 1013,1 hPa 0,0 l/m 0 min 0 min 0 W/m 9,7 km/h (2 Bft) 97,83 %
19.11.2022 20:38 2,2 C 1,7 C -1,1 C 84 % 1013,1 hPa 0,0 l/m 0 min 0 min 0 W/m 6,4 km/h (2 Bft) 95,74 %
19.11.2022 20:40 2,2 C 1,7 C -1,1 C 84 % 1013,2 hPa 0,0 l/m 0 min 0 min 0 W/m 9,7 km/h (2 Bft) 97,87 %
19.11.2022 20:42 2,2 C 1,7 C -1,1 C 84 % 1013,2 hPa 0,0 l/m 0 min 0 min 0 W/m 6,4 km/h (2 Bft) 100,00 %
19.11.2022 20:44 2,1 C 1,7 C -1,1 C 84 % 1013,2 hPa 0,0 l/m 0 min 0 min 0 W/m 6,4 km/h (2 Bft) 100,00 %
19.11.2022 20:46 2,1 C 1,7 C -1,1 C 84 % 1013,2 hPa 0,0 l/m 0 min 0 min 0 W/m 6,4 km/h (2 Bft) 95,74 %
19.11.2022 20:48 2,1 C 1,7 C -1,1 C 84 % 1013,3 hPa 0,0 l/m 0 min 0 min 0 W/m 9,7 km/h (2 Bft) 100,00 %
19.11.2022 20:50 2,1 C 1,7 C -1,1 C 84 % 1013,2 hPa 0,0 l/m 0 min 0 min 0 W/m 9,7 km/h (2 Bft) 97,87 %
19.11.2022 20:52 2,1 C 1,7 C -1,1 C 84 % 1013,3 hPa 0,0 l/m 0 min 0 min 0 W/m 6,4 km/h (2 Bft) 97,87 %
19.11.2022 20:54 2,1 C 1,7 C -1,1 C 84 % 1013,2 hPa 0,0 l/m 0 min 0 min 0 W/m 3,2 km/h (1 Bft) 95,74 %
19.11.2022 20:56 2,1 C 1,7 C -1,1 C 84 % 1013,2 hPa 0,0 l/m 0 min 0 min 0 W/m 3,2 km/h (1 Bft) 97,87 %
19.11.2022 20:58 2,1 C 1,7 C -1,1 C 84 % 1013,2 hPa 0,0 l/m 0 min 0 min 0 W/m 3,2 km/h (1 Bft) 97,87 %
19.11.2022 21:00 2,1 C 1,7 C -1,1 C 84 % 1013,3 hPa 0,0 l/m 0 min 0 min 0 W/m 3,2 km/h (1 Bft) 93,48 %
19.11.2022 21:02 2,1 C 2,2 C -1,1 C 84 % 1013,3 hPa 0,0 l/m 0 min 0 min 0 W/m 3,2 km/h (1 Bft) 97,87 %
19.11.2022 21:04 2,1 C 1,7 C -1,1 C 84 % 1013,3 hPa 0,0 l/m 0 min 0 min 0 W/m 3,2 km/h (1 Bft) 94,23 %
19.11.2022 21:06 2,1 C 1,7 C -1,1 C 84 % 1013,3 hPa 0,0 l/m 0 min 0 min 0 W/m 9,7 km/h (2 Bft) 95,74 %
19.11.2022 21:08 2,1 C 1,7 C -1,1 C 84 % 1013,3 hPa 0,0 l/m 0 min 0 min 0 W/m 6,4 km/h (2 Bft) 93,62 %
19.11.2022 21:10 2,1 C 1,7 C -1,1 C 84 % 1013,3 hPa 0,0 l/m 0 min 0 min 0 W/m 3,2 km/h (1 Bft) 95,65 %
19.11.2022 21:12 2,1 C 2,2 C -1,1 C 84 % 1013,3 hPa 0,0 l/m 0 min 0 min 0 W/m 6,4 km/h (2 Bft) 93,62 %
19.11.2022 21:14 2,1 C 1,7 C -1,1 C 84 % 1013,4 hPa 0,0 l/m 0 min 0 min 0 W/m 3,2 km/h (1 Bft) 95,74 %
19.11.2022 21:16 2,1 C 1,7 C -1,1 C 84 % 1013,4 hPa 0,0 l/m 0 min 0 min 0 W/m 6,4 km/h (2 Bft) 95,74 %
19.11.2022 21:18 2,1 C 1,7 C -1,1 C 85 % 1013,4 hPa 0,0 l/m 0 min 0 min 0 W/m 3,2 km/h (1 Bft) 95,74 %
19.11.2022 21:20 2,1 C 1,7 C -1,1 C 85 % 1013,4 hPa 0,0 l/m 0 min 0 min 0 W/m 3,2 km/h (1 Bft) 95,74 %
19.11.2022 21:22 2,1 C 1,7 C -1,1 C 85 % 1013,4 hPa 0,0 l/m 0 min 0 min 0 W/m 9,7 km/h (2 Bft) 95,65 %
19.11.2022 21:24 2,1 C 1,7 C -1,1 C 85 % 1013,4 hPa 0,0 l/m 0 min 0 min 0 W/m 6,4 km/h (2 Bft) 95,74 %
19.11.2022 21:26 2,1 C 1,7 C -1,1 C 85 % 1013,4 hPa 0,0 l/m 0 min 0 min 0 W/m 3,2 km/h (1 Bft) 93,62 %
19.11.2022 21:28 2,1 C 1,7 C -1,1 C 85 % 1013,4 hPa 0,0 l/m 0 min 0 min 0 W/m 6,4 km/h (2 Bft) 95,74 %
19.11.2022 21:30 2,1 C 1,7 C -1,1 C 85 % 1013,4 hPa 0,0 l/m 0 min 0 min 0 W/m 3,2 km/h (1 Bft) 95,74 %
19.11.2022 21:32 2,1 C 1,7 C -1,1 C 85 % 1013,4 hPa 0,0 l/m 0 min 0 min 0 W/m 3,2 km/h (1 Bft) 100,00 %
19.11.2022 21:34 2,1 C 1,7 C -1,1 C 85 % 1013,4 hPa 0,0 l/m 0 min 0 min 0 W/m 6,4 km/h (2 Bft) 100,00 %
19.11.2022 21:36 2,1 C 1,7 C -1,1 C 85 % 1013,4 hPa 0,0 l/m 0 min 0 min 0 W/m 3,2 km/h (1 Bft) 100,00 %
19.11.2022 21:38 2,1 C 1,7 C -1,1 C 85 % 1013,4 hPa 0,0 l/m 0 min 0 min 0 W/m 3,2 km/h (1 Bft) 100,00 %
19.11.2022 21:40 2,2 C 1,7 C -1,1 C 85 % 1013,3 hPa 0,0 l/m 0 min 0 min 0 W/m 3,2 km/h (1 Bft) 100,00 %
19.11.2022 21:42 2,2 C 2,2 C -1,1 C 85 % 1013,4 hPa 0,0 l/m 0 min 0 min 0 W/m 3,2 km/h (1 Bft) 95,74 %
19.11.2022 21:44 2,2 C 2,2 C -1,1 C 85 % 1013,4 hPa 0,0 l/m 0 min 0 min 0 W/m 3,2 km/h (1 Bft) 100,00 %
19.11.2022 21:46 2,2 C 1,7 C -1,1 C 85 % 1013,4 hPa 0,0 l/m 0 min 0 min 0 W/m 3,2 km/h (1 Bft) 100,00 %
19.11.2022 21:48 2,2 C 1,7 C -1,1 C 86 % 1013,4 hPa 0,0 l/m 0 min 0 min 0 W/m 3,2 km/h (1 Bft) 100,00 %
19.11.2022 21:50 2,2 C 1,7 C -1,1 C 85 % 1013,4 hPa 0,0 l/m 0 min 0 min 0 W/m 3,2 km/h (1 Bft) 100,00 %
19.11.2022 21:52 2,2 C 1,7 C -1,1 C 85 % 1013,4 hPa 0,0 l/m 0 min 0 min 0 W/m 3,2 km/h (1 Bft) 100,00 %
19.11.2022 21:54 2,2 C 1,7 C -1,1 C 85 % 1013,4 hPa 0,0 l/m 0 min 0 min 0 W/m 3,2 km/h (1 Bft) 97,87 %
19.11.2022 21:56 2,2 C 1,7 C -1,1 C 85 % 1013,4 hPa 0,0 l/m 0 min 0 min 0 W/m 3,2 km/h (1 Bft) 100,00 %
19.11.2022 21:58 2,2 C 1,7 C -1,1 C 85 % 1013,4 hPa 0,0 l/m 0 min 0 min 0 W/m 6,4 km/h (2 Bft) 100,00 %
19.11.2022 22:00 2,1 C 1,7 C -1,1 C 85 % 1013,5 hPa 0,0 l/m 0 min 0 min 0 W/m 6,4 km/h (2 Bft) 100,00 %
19.11.2022 22:02 2,1 C 1,7 C -1,1 C 85 % 1013,4 hPa 0,0 l/m 0 min 0 min 0 W/m 6,4 km/h (2 Bft) 100,00 %
19.11.2022 22:04 2,1 C 1,7 C -1,1 C 85 % 1013,5 hPa 0,0 l/m 0 min 0 min 0 W/m 3,2 km/h (1 Bft) 97,62 %
19.11.2022 22:06 2,1 C 1,7 C -1,1 C 85 % 1013,4 hPa 0,0 l/m 0 min 0 min 0 W/m 3,2 km/h (1 Bft) 100,00 %
19.11.2022 22:08 2,1 C 1,7 C -1,1 C 85 % 1013,5 hPa 0,0 l/m 0 min 0 min 0 W/m 3,2 km/h (1 Bft) 100,00 %
19.11.2022 22:10 2,1 C 1,7 C -1,1 C 85 % 1013,4 hPa 0,0 l/m 0 min 0 min 0 W/m 6,4 km/h (2 Bft) 95,65 %
19.11.2022 22:12 2,1 C 1,7 C -1,1 C 85 % 1013,4 hPa 0,0 l/m 0 min 0 min 0 W/m 6,4 km/h (2 Bft) 97,87 %
19.11.2022 22:14 2,1 C 1,7 C -1,1 C 85 % 1013,4 hPa 0,0 l/m 0 min 0 min 0 W/m 6,4 km/h (2 Bft) 100,00 %
19.11.2022 22:16 2,1 C 1,7 C -1,1 C 85 % 1013,4 hPa 0,0 l/m 0 min 0 min 0 W/m 6,4 km/h (2 Bft) 100,00 %
19.11.2022 22:18 2,1 C 1,7 C -1,1 C 85 % 1013,3 hPa 0,0 l/m 0 min 0 min 0 W/m 6,4 km/h (2 Bft) 100,00 %
19.11.2022 22:20 2,0 C 1,7 C -1,1 C 85 % 1013,3 hPa 0,0 l/m 0 min 0 min 0 W/m 6,4 km/h (2 Bft) 100,00 %
19.11.2022 22:22 2,0 C 1,7 C -1,1 C 85 % 1013,3 hPa 0,0 l/m 0 min 0 min 0 W/m 6,4 km/h (2 Bft) 100,00 %
19.11.2022 22:24 2,0 C 1,7 C -1,7 C 85 % 1013,4 hPa 0,0 l/m 0 min 0 min 0 W/m 6,4 km/h (2 Bft) 100,00 %
19.11.2022 22:26 1,9 C 1,7 C -1,1 C 85 % 1013,4 hPa 0,0 l/m 0 min 0 min 0 W/m 6,4 km/h (2 Bft) 100,00 %
19.11.2022 22:28 1,9 C 1,7 C -1,1 C 85 % 1013,4 hPa 0,0 l/m 0 min 0 min 0 W/m 3,2 km/h (1 Bft) 100,00 %
19.11.2022 22:30 1,9 C 1,7 C -1,1 C 86 % 1013,4 hPa 0,0 l/m 0 min 0 min 0 W/m 6,4 km/h (2 Bft) 100,00 %
19.11.2022 22:32 1,9 C 1,7 C -1,1 C 86 % 1013,3 hPa 0,0 l/m 0 min 0 min 0 W/m 6,4 km/h (2 Bft) 100,00 %
19.11.2022 22:34 1,9 C 1,7 C -1,1 C 86 % 1013,3 hPa 0,0 l/m 0 min 0 min 0 W/m 6,4 km/h (2 Bft) 100,00 %
19.11.2022 22:36 1,9 C 1,7 C -1,1 C 86 % 1013,3 hPa 0,0 l/m 0 min 0 min 0 W/m 6,4 km/h (2 Bft) 100,00 %
19.11.2022 22:38 1,9 C 1,7 C -1,1 C 86 % 1013,3 hPa 0,0 l/m 0 min 0 min 0 W/m 6,4 km/h (2 Bft) 100,00 %
19.11.2022 22:40 1,8 C 1,7 C -1,1 C 86 % 1013,3 hPa 0,0 l/m 0 min 0 min 0 W/m 6,4 km/h (2 Bft) 100,00 %
19.11.2022 22:42 1,8 C 1,7 C -1,7 C 86 % 1013,3 hPa 0,0 l/m 0 min 0 min 0 W/m 6,4 km/h (2 Bft) 100,00 %
19.11.2022 22:44 1,8 C 1,7 C -1,7 C 86 % 1013,3 hPa 0,0 l/m 0 min 0 min 0 W/m 6,4 km/h (2 Bft) 95,74 %
19.11.2022 22:46 1,8 C 1,7 C -1,7 C 86 % 1013,3 hPa 0,0 l/m 0 min 0 min 0 W/m 6,4 km/h (2 Bft) 100,00 %
19.11.2022 22:48 1,8 C 1,7 C -1,7 C 86 % 1013,3 hPa 0,0 l/m 0 min 0 min 0 W/m 3,2 km/h (1 Bft) 97,87 %
19.11.2022 22:50 1,8 C 1,7 C -1,7 C 86 % 1013,3 hPa 0,0 l/m 0 min 0 min 0 W/m 3,2 km/h (1 Bft) 97,87 %
19.11.2022 22:52 1,8 C 1,7 C -1,7 C 86 % 1013,3 hPa 0,0 l/m 0 min 0 min 0 W/m 3,2 km/h (1 Bft) 95,74 %
19.11.2022 22:54 1,8 C 1,7 C -1,7 C 86 % 1013,3 hPa 0,0 l/m 0 min 0 min 0 W/m 3,2 km/h (1 Bft) 95,74 %
19.11.2022 22:56 1,8 C 1,7 C -1,7 C 86 % 1013,3 hPa 0,0 l/m 0 min 0 min 0 W/m 3,2 km/h (1 Bft) 97,87 %
19.11.2022 22:58 1,8 C 1,7 C -1,7 C 87 % 1013,3 hPa 0,0 l/m 0 min 0 min 0 W/m 3,2 km/h (1 Bft) 95,65 %
19.11.2022 23:00 1,8 C 1,7 C -1,1 C 87 % 1013,4 hPa 0,0 l/m 0 min 0 min 0 W/m 0,0 km/h (0 Bft) 97,87 %
19.11.2022 23:02 1,8 C 1,7 C -1,1 C 87 % 1013,3 hPa 0,0 l/m 0 min 0 min 0 W/m 3,2 km/h (1 Bft) 97,87 %
19.11.2022 23:04 1,8 C 1,7 C -1,1 C 87 % 1013,3 hPa 0,0 l/m 0 min 0 min 0 W/m 0,0 km/h (0 Bft) 96,15 %
19.11.2022 23:06 1,8 C 1,7 C -1,1 C 87 % 1013,3 hPa 0,0 l/m 0 min 0 min 0 W/m 3,2 km/h (1 Bft) 95,74 %
19.11.2022 23:08 1,8 C 1,1 C -1,1 C 87 % 1013,3 hPa 0,0 l/m 0 min 0 min 0 W/m 3,2 km/h (1 Bft) 95,65 %
19.11.2022 23:10 1,8 C 1,7 C -1,1 C 87 % 1013,4 hPa 0,0 l/m 0 min 0 min 0 W/m 3,2 km/h (1 Bft) 95,74 %
19.11.2022 23:12 1,8 C 1,1 C -1,1 C 87 % 1013,3 hPa 0,0 l/m 0 min 0 min 0 W/m 3,2 km/h (1 Bft) 95,74 %
19.11.2022 23:14 1,8 C 1,7 C -1,1 C 87 % 1013,3 hPa 0,0 l/m 0 min 0 min 0 W/m 3,2 km/h (1 Bft) 97,87 %
19.11.2022 23:16 1,8 C 1,7 C -1,1 C 87 % 1013,3 hPa 0,0 l/m 0 min 0 min 0 W/m 3,2 km/h (1 Bft) 91,49 %
19.11.2022 23:18 1,8 C 1,7 C -1,7 C 87 % 1013,3 hPa 0,0 l/m 0 min 0 min 0 W/m 3,2 km/h (1 Bft) 95,74 %
19.11.2022 23:20 1,8 C 1,7 C -1,7 C 87 % 1013,3 hPa 0,0 l/m 0 min 0 min 0 W/m 3,2 km/h (1 Bft) 95,65 %
19.11.2022 23:22 1,8 C 1,7 C -1,7 C 87 % 1013,3 hPa 0,0 l/m 0 min 0 min 0 W/m 3,2 km/h (1 Bft) 93,62 %
19.11.2022 23:24 1,8 C 1,7 C -1,1 C 87 % 1013,3 hPa 0,0 l/m 0 min 0 min 0 W/m 3,2 km/h (1 Bft) 93,62 %
19.11.2022 23:26 1,8 C 1,7 C -1,1 C 87 % 1013,3 hPa 0,0 l/m 0 min 0 min 0 W/m 3,2 km/h (1 Bft) 93,62 %
19.11.2022 23:28 1,8 C 1,1 C -1,1 C 87 % 1013,4 hPa 0,0 l/m 0 min 0 min 0 W/m 6,4 km/h (2 Bft) 95,74 %
19.11.2022 23:30 1,8 C 1,1 C -1,1 C 87 % 1013,4 hPa 0,0 l/m 0 min 0 min 0 W/m 3,2 km/h (1 Bft) 95,74 %
19.11.2022 23:32 1,8 C 1,1 C -1,1 C 87 % 1013,4 hPa 0,0 l/m 0 min 0 min 0 W/m 0,0 km/h (0 Bft) 93,62 %
19.11.2022 23:34 1,8 C 1,1 C -1,7 C 87 % 1013,4 hPa 0,0 l/m 0 min 0 min 0 W/m 3,2 km/h (1 Bft) 95,74 %
19.11.2022 23:36 1,8 C 1,1 C -1,7 C 87 % 1013,4 hPa 0,0 l/m 0 min 0 min 0 W/m 3,2 km/h (1 Bft) 95,74 %
19.11.2022 23:38 1,8 C 1,1 C -1,7 C 87 % 1013,4 hPa 0,0 l/m 0 min 0 min 0 W/m 0,0 km/h (0 Bft) 95,74 %
19.11.2022 23:40 1,8 C 1,1 C -1,7 C 87 % 1013,4 hPa 0,0 l/m 0 min 0 min 0 W/m 0,0 km/h (0 Bft) 97,87 %
19.11.2022 23:42 1,8 C 1,1 C -1,1 C 87 % 1013,4 hPa 0,0 l/m 0 min 0 min 0 W/m 0,0 km/h (0 Bft) 89,36 %
19.11.2022 23:44 1,8 C 1,1 C -1,1 C 87 % 1013,4 hPa 0,0 l/m 0 min 0 min 0 W/m 3,2 km/h (1 Bft) 97,83 %
19.11.2022 23:46 1,8 C 1,1 C -1,1 C 87 % 1013,4 hPa 0,0 l/m 0 min 0 min 0 W/m 3,2 km/h (1 Bft) 95,74 %
19.11.2022 23:48 1,8 C 1,1 C -1,1 C 87 % 1013,4 hPa 0,0 l/m 0 min 0 min 0 W/m 0,0 km/h (0 Bft) 95,74 %
19.11.2022 23:50 1,8 C 1,1 C -1,1 C 87 % 1013,4 hPa 0,0 l/m 0 min 0 min 0 W/m 3,2 km/h (1 Bft) 95,74 %
19.11.2022 23:52 1,8 C 1,1 C -1,1 C 87 % 1013,4 hPa 0,0 l/m 0 min 0 min 0 W/m 3,2 km/h (1 Bft) 95,74 %
19.11.2022 23:54 1,8 C 1,1 C -1,1 C 87 % 1013,4 hPa 0,0 l/m 0 min 0 min 0 W/m 3,2 km/h (1 Bft) 50,00 %
19.11.2022 23:56 1,8 C 1,1 C -1,7 C 87 % 1013,4 hPa 0,0 l/m 0 min 0 min 0 W/m 3,2 km/h (1 Bft) 97,44 %
19.11.2022 23:58 1,8 C 1,1 C -1,7 C 87 % 1013,4 hPa 0,0 l/m 0 min 0 min 0 W/m 3,2 km/h (1 Bft) 97,87 %
_ Min-Zeit 22:40 23:08 22:24 18:20 00:00 - - - - 00:58 16:58
Minimum _ 1,8 C 1,1 C -1,7 C 82 % 1007,0 hPa - - - - 0,0 km/h (0 Bft) 36,36 %
_ Max-Zeit 00:00 00:00 00:00 00:00 22:00 00:30 00:00 00:48 13:44 02:54 01:18
Maximum _ 6,9 C 6,1 C 3,9 C 98 % 1013,5 hPa 0,2 l/m 0 min 2 min 107 W/m 25,7 km/h
O-SO (4 Bft)
100,00 %
Durchschnitt _ 3,0 C 2,7 C 0,2 C 91 % 1011,2 hPa #0,4 l/m #0 min. #20 min. 46 W/m 9,4 km/h (2 Bft) 96,42 %
© 2022 W. Hausmann